Time,TemperatureF,DewpointF,PressureIn,WindDirection,WindDirectionDegrees,WindSpeedMPH,WindSpeedGustMPH,Humidity,HourlyPrecipIn,Conditions,Clouds,dailyrainin,SolarRadiationWatts/m^2,SoftwareType,DateUTC
2013-05-25 00:00:00,47.4,42.2,30.30,ESE,105,0.0,0.0,82,0.00,,,0.00,0.00,VWS V14.01,2013-05-25 04:00:00,
2013-05-25 00:01:00,47.4,42.2,30.30,ESE,105,0.0,0.0,82,0.00,,,0.00,0.00,VWS V14.01,2013-05-25 04:01:00,
2013-05-25 00:06:00,47.3,41.8,30.30,ESE,105,0.0,0.0,81,0.00,,,0.00,0.00,VWS V14.01,2013-05-25 04:06:00,
2013-05-25 00:11:00,47.2,41.7,30.30,ESE,105,0.0,0.0,81,0.00,,,0.00,0.00,VWS V14.01,2013-05-25 04:11:00,
2013-05-25 00:16:00,47.3,41.1,30.30,ESE,105,0.0,0.0,79,0.00,,,0.00,0.00,VWS V14.01,2013-05-25 04:16:00,
2013-05-25 00:21:00,47.6,41.1,30.31,ESE,105,0.0,0.0,78,0.00,,,0.00,0.00,VWS V14.01,2013-05-25 04:21:00,
2013-05-25 00:26:00,47.8,41.0,30.31,ESE,105,0.0,0.0,77,0.00,,,0.00,0.00,VWS V14.01,2013-05-25 04:26:00,
2013-05-25 00:31:00,48.0,40.8,30.31,ESE,105,0.0,0.0,76,0.00,,,0.00,0.00,VWS V14.01,2013-05-25 04:31:00,
2013-05-25 00:36:00,48.1,40.6,30.31,ESE,105,0.0,0.0,75,0.00,,,0.00,0.00,VWS V14.01,2013-05-25 04:36:00,
2013-05-25 00:41:00,48.2,40.7,30.31,ESE,105,0.0,0.0,75,0.00,,,0.00,0.00,VWS V14.01,2013-05-25 04:41:00,
2013-05-25 00:46:00,48.2,40.7,30.31,ESE,105,0.0,0.0,75,0.00,,,0.00,0.00,VWS V14.01,2013-05-25 04:46:00,
2013-05-25 00:51:00,48.1,40.6,30.30,ESE,105,0.0,0.0,75,0.00,,,0.00,0.00,VWS V14.01,2013-05-25 04:51:00,
2013-05-25 00:52:00,48.0,40.5,30.30,ESE,105,0.0,0.0,75,0.00,,,0.00,0.00,VWS V14.01,2013-05-25 04:52:00,
2013-05-25 00:56:00,47.9,40.4,30.30,ESE,105,0.0,0.0,75,0.00,,,0.00,0.00,VWS V14.01,2013-05-25 04:56:00,
2013-05-25 00:57:00,47.9,40.4,30.30,ESE,105,0.0,0.0,75,0.00,,,0.00,0.00,VWS V14.01,2013-05-25 04:57:00,
2013-05-25 01:01:00,47.8,40.3,30.31,ESE,105,0.0,0.0,75,0.00,,,0.00,0.00,VWS V14.01,2013-05-25 05:01:00,
2013-05-25 01:02:00,47.8,40.3,30.31,ESE,105,0.0,0.0,75,0.00,,,0.00,0.00,VWS V14.01,2013-05-25 05:02:00,
2013-05-25 01:06:00,47.8,40.6,30.31,ESE,105,0.0,0.0,76,0.00,,,0.00,0.00,VWS V14.01,2013-05-25 05:06:00,
2013-05-25 01:07:00,47.8,40.6,30.31,ESE,105,0.0,0.0,76,0.00,,,0.00,0.00,VWS V14.01,2013-05-25 05:07:00,
2013-05-25 01:11:00,47.7,40.5,30.31,ESE,105,0.0,0.0,76,0.00,,,0.00,0.00,VWS V14.01,2013-05-25 05:11:00,
2013-05-25 01:12:00,47.6,40.4,30.31,ESE,105,0.0,0.0,76,0.00,,,0.00,0.00,VWS V14.01,2013-05-25 05:12:00,
2013-05-25 01:16:00,47.4,40.2,30.31,ESE,105,0.0,0.0,76,0.00,,,0.00,0.00,VWS V14.01,2013-05-25 05:16:00,
2013-05-25 01:17:00,47.4,40.2,30.31,ESE,105,0.0,0.0,76,0.00,,,0.00,0.00,VWS V14.01,2013-05-25 05:17:00,
2013-05-25 01:21:00,47.4,40.2,30.31,ESE,105,0.0,0.0,76,0.00,,,0.00,0.00,VWS V14.01,2013-05-25 05:21:00,
2013-05-25 01:22:00,47.4,40.2,30.31,ESE,105,0.0,0.0,76,0.00,,,0.00,0.00,VWS V14.01,2013-05-25 05:22:00,
2013-05-25 01:26:00,47.0,40.2,30.31,ESE,105,0.0,0.0,77,0.00,,,0.00,0.00,VWS V14.01,2013-05-25 05:26:00,
2013-05-25 01:27:00,47.0,40.2,30.31,ESE,105,0.0,0.0,77,0.00,,,0.00,0.00,VWS V14.01,2013-05-25 05:27:00,
2013-05-25 01:31:00,46.9,40.1,30.31,ESE,105,0.0,0.0,77,0.00,,,0.00,0.00,VWS V14.01,2013-05-25 05:31:00,
2013-05-25 01:32:00,46.9,40.1,30.31,ESE,105,0.0,0.0,77,0.00,,,0.00,0.00,VWS V14.01,2013-05-25 05:32:00,
2013-05-25 01:36:00,46.7,40.2,30.31,ESE,105,0.0,0.0,78,0.00,,,0.00,0.00,VWS V14.01,2013-05-25 05:36:00,
2013-05-25 01:37:00,46.7,40.2,30.31,ESE,105,0.0,0.0,78,0.00,,,0.00,0.00,VWS V14.01,2013-05-25 05:37:00,
2013-05-25 01:41:00,46.6,39.8,30.31,ESE,105,0.0,0.0,77,0.00,,,0.00,0.00,VWS V14.01,2013-05-25 05:41:00,
2013-05-25 01:42:00,46.6,39.8,30.31,ESE,105,0.0,0.0,77,0.00,,,0.00,0.00,VWS V14.01,2013-05-25 05:42:00,
2013-05-25 01:43:00,46.6,39.8,30.31,ESE,105,0.0,0.0,77,0.00,,,0.00,0.00,VWS V14.01,2013-05-25 05:43:00,
2013-05-25 01:46:00,46.5,40.0,30.31,ESE,105,0.0,0.0,78,0.00,,,0.00,0.00,VWS V14.01,2013-05-25 05:46:00,
2013-05-25 01:47:00,46.5,40.0,30.31,ESE,105,0.0,0.0,78,0.00,,,0.00,0.00,VWS V14.01,2013-05-25 05:47:00,
2013-05-25 01:48:00,46.5,40.0,30.31,ESE,105,0.0,0.0,78,0.00,,,0.00,0.00,VWS V14.01,2013-05-25 05:48:00,
2013-05-25 01:51:00,46.3,40.2,30.31,ESE,105,0.0,0.0,79,0.00,,,0.00,0.00,VWS V14.01,2013-05-25 05:51:00,
2013-05-25 01:52:00,46.3,40.2,30.31,ESE,105,0.0,0.0,79,0.00,,,0.00,0.00,VWS V14.01,2013-05-25 05:52:00,
2013-05-25 01:53:00,46.3,40.2,30.31,ESE,105,0.0,0.0,79,0.00,,,0.00,0.00,VWS V14.01,2013-05-25 05:53:00,
2013-05-25 01:56:00,46.1,40.0,30.31,ESE,105,0.0,0.0,79,0.00,,,0.00,0.00,VWS V14.01,2013-05-25 05:56:00,
2013-05-25 01:57:00,46.1,40.0,30.31,ESE,105,0.0,0.0,79,0.00,,,0.00,0.00,VWS V14.01,2013-05-25 05:57:00,
2013-05-25 01:58:00,46.1,40.0,30.31,ESE,105,0.0,0.0,79,0.00,,,0.00,0.00,VWS V14.01,2013-05-25 05:58:00,
2013-05-25 02:01:00,45.9,40.1,30.32,ESE,105,0.0,0.0,80,0.00,,,0.00,0.00,VWS V14.01,2013-05-25 06:01:00,
2013-05-25 02:02:00,45.9,40.1,30.32,ESE,105,0.0,0.0,80,0.00,,,0.00,0.00,VWS V14.01,2013-05-25 06:02:00,
2013-05-25 02:03:00,45.9,40.1,30.32,ESE,105,0.0,0.0,80,0.00,,,0.00,0.00,VWS V14.01,2013-05-25 06:03:00,
2013-05-25 02:07:00,45.7,39.9,30.31,ESE,105,0.0,0.0,80,0.00,,,0.00,0.00,VWS V14.01,2013-05-25 06:07:00,
2013-05-25 02:08:00,45.7,39.9,30.31,ESE,105,0.0,0.0,80,0.00,,,0.00,0.00,VWS V14.01,2013-05-25 06:08:00,
2013-05-25 02:12:00,45.5,39.7,30.31,ESE,105,0.0,0.0,80,0.00,,,0.00,0.00,VWS V14.01,2013-05-25 06:12:00,
2013-05-25 02:13:00,45.5,40.0,30.31,ESE,105,0.0,0.0,81,0.00,,,0.00,0.00,VWS V14.01,2013-05-25 06:13:00,
2013-05-25 02:17:00,45.4,39.9,30.31,ESE,105,0.0,0.0,81,0.00,,,0.00,0.00,VWS V14.01,2013-05-25 06:17:00,
2013-05-25 02:18:00,45.4,39.9,30.32,ESE,105,0.0,0.0,81,0.00,,,0.00,0.00,VWS V14.01,2013-05-25 06:18:00,
2013-05-25 02:22:00,45.3,39.8,30.31,ESE,105,0.0,0.0,81,0.00,,,0.00,0.00,VWS V14.01,2013-05-25 06:22:00,
2013-05-25 02:23:00,45.3,39.8,30.32,ESE,105,0.0,0.0,81,0.00,,,0.00,0.00,VWS V14.01,2013-05-25 06:23:00,
2013-05-25 02:24:00,45.3,39.8,30.32,ESE,105,0.0,0.0,81,0.00,,,0.00,0.00,VWS V14.01,2013-05-25 06:24:00,
2013-05-25 02:27:00,45.2,40.0,30.32,ESE,105,0.0,0.0,82,0.00,,,0.00,0.00,VWS V14.01,2013-05-25 06:27:00,
2013-05-25 02:28:00,45.1,39.9,30.32,ESE,105,0.0,0.0,82,0.00,,,0.00,0.00,VWS V14.01,2013-05-25 06:28:00,
2013-05-25 02:29:00,45.1,39.9,30.32,ESE,105,0.0,0.0,82,0.00,,,0.00,0.00,VWS V14.01,2013-05-25 06:29:00,
2013-05-25 02:32:00,45.0,39.8,30.32,ESE,105,0.0,0.0,82,0.00,,,0.00,0.00,VWS V14.01,2013-05-25 06:32:00,
2013-05-25 02:33:00,44.9,39.8,30.32,ESE,105,0.0,0.0,82,0.00,,,0.00,0.00,VWS V14.01,2013-05-25 06:33:00,
2013-05-25 02:34:00,44.9,39.8,30.32,ESE,105,0.0,0.0,82,0.00,,,0.00,0.00,VWS V14.01,2013-05-25 06:34:00,
2013-05-25 02:37:00,44.8,40.0,30.32,ESE,105,0.0,0.0,83,0.00,,,0.00,0.00,VWS V14.01,2013-05-25 06:37:00,
2013-05-25 02:38:00,44.7,39.9,30.32,ESE,105,0.0,0.0,83,0.00,,,0.00,0.00,VWS V14.01,2013-05-25 06:38:00,
2013-05-25 02:39:00,44.7,39.9,30.32,ESE,105,0.0,0.0,83,0.00,,,0.00,0.00,VWS V14.01,2013-05-25 06:39:00,
2013-05-25 02:42:00,44.6,39.8,30.32,ESE,105,0.0,0.0,83,0.00,,,0.00,0.00,VWS V14.01,2013-05-25 06:42:00,
2013-05-25 02:43:00,44.5,39.7,30.32,ESE,105,0.0,0.0,83,0.00,,,0.00,0.00,VWS V14.01,2013-05-25 06:43:00,
2013-05-25 02:44:00,44.5,39.7,30.32,ESE,105,0.0,0.0,83,0.00,,,0.00,0.00,VWS V14.01,2013-05-25 06:44:00,
2013-05-25 02:47:00,44.3,39.5,30.32,ESE,105,0.0,0.0,83,0.00,,,0.00,0.00,VWS V14.01,2013-05-25 06:47:00,
2013-05-25 02:48:00,44.3,39.8,30.32,ESE,105,0.0,0.0,84,0.00,,,0.00,0.00,VWS V14.01,2013-05-25 06:48:00,
2013-05-25 02:49:00,44.3,39.8,30.32,ESE,105,0.0,0.0,84,0.00,,,0.00,0.00,VWS V14.01,2013-05-25 06:49:00,
2013-05-25 02:52:00,44.2,39.7,30.32,ESE,105,0.0,0.0,84,0.00,,,0.00,0.00,VWS V14.01,2013-05-25 06:52:00,
2013-05-25 02:53:00,44.2,39.7,30.32,ESE,105,0.0,0.0,84,0.00,,,0.00,0.00,VWS V14.01,2013-05-25 06:53:00,
2013-05-25 02:54:00,44.1,39.6,30.32,ESE,105,0.0,0.0,84,0.00,,,0.00,0.00,VWS V14.01,2013-05-25 06:54:00,
2013-05-25 02:57:00,44.1,39.6,30.32,ESE,105,0.0,0.0,84,0.00,,,0.00,0.00,VWS V14.01,2013-05-25 06:57:00,
2013-05-25 02:59:00,44.0,39.5,30.32,ESE,105,0.0,0.0,84,0.00,,,0.00,0.00,VWS V14.01,2013-05-25 06:59:00,
2013-05-25 03:02:00,43.9,39.4,30.31,ESE,105,0.0,0.0,84,0.00,,,0.00,0.00,VWS V14.01,2013-05-25 07:02:00,
2013-05-25 03:04:00,43.9,39.4,30.31,ESE,105,0.0,0.0,84,0.00,,,0.00,0.00,VWS V14.01,2013-05-25 07:04:00,
2013-05-25 03:07:00,43.8,39.6,30.31,ESE,105,0.0,0.0,85,0.00,,,0.00,0.00,VWS V14.01,2013-05-25 07:07:00,
2013-05-25 03:08:00,43.8,39.6,30.31,ESE,105,0.0,0.0,85,0.00,,,0.00,0.00,VWS V14.01,2013-05-25 07:08:00,
2013-05-25 03:09:00,43.8,39.6,30.31,ESE,105,0.0,0.0,85,0.00,,,0.00,0.00,VWS V14.01,2013-05-25 07:09:00,
2013-05-25 03:12:00,43.7,39.2,30.31,ESE,105,0.0,0.0,84,0.00,,,0.00,0.00,VWS V14.01,2013-05-25 07:12:00,
2013-05-25 03:13:00,43.7,39.2,30.31,ESE,105,0.0,0.0,84,0.00,,,0.00,0.00,VWS V14.01,2013-05-25 07:13:00,
2013-05-25 03:14:00,43.6,39.1,30.31,ESE,105,0.0,0.0,84,0.00,,,0.00,0.00,VWS V14.01,2013-05-25 07:14:00,
2013-05-25 03:17:00,43.6,39.1,30.31,ESE,105,0.0,0.0,84,0.00,,,0.00,0.00,VWS V14.01,2013-05-25 07:17:00,
2013-05-25 03:18:00,43.5,39.0,30.31,ESE,105,0.0,0.0,84,0.00,,,0.00,0.00,VWS V14.01,2013-05-25 07:18:00,
2013-05-25 03:19:00,43.5,39.3,30.31,ESE,105,0.0,0.0,85,0.00,,,0.00,0.00,VWS V14.01,2013-05-25 07:19:00,
2013-05-25 03:22:00,43.4,39.2,30.31,ESE,105,0.0,0.0,85,0.00,,,0.00,0.00,VWS V14.01,2013-05-25 07:22:00,
2013-05-25 03:23:00,43.4,39.2,30.31,ESE,105,0.0,0.0,85,0.00,,,0.00,0.00,VWS V14.01,2013-05-25 07:23:00,
2013-05-25 03:24:00,43.3,39.1,30.31,ESE,105,0.0,0.0,85,0.00,,,0.00,0.00,VWS V14.01,2013-05-25 07:24:00,
2013-05-25 03:27:00,43.2,39.0,30.31,ESE,105,0.0,0.0,85,0.00,,,0.00,0.00,VWS V14.01,2013-05-25 07:27:00,
2013-05-25 03:28:00,43.2,39.3,30.31,ESE,105,0.0,0.0,86,0.00,,,0.00,0.00,VWS V14.01,2013-05-25 07:28:00,
2013-05-25 03:29:00,43.2,39.3,30.31,ESE,105,0.0,0.0,86,0.00,,,0.00,0.00,VWS V14.01,2013-05-25 07:29:00,
2013-05-25 03:32:00,43.1,39.2,30.31,ESE,105,0.0,0.0,86,0.00,,,0.00,0.00,VWS V14.01,2013-05-25 07:32:00,
2013-05-25 03:33:00,43.0,39.1,30.31,ESE,105,0.0,0.0,86,0.00,,,0.00,0.00,VWS V14.01,2013-05-25 07:33:00,
2013-05-25 03:34:00,43.0,39.1,30.31,ESE,105,0.0,0.0,86,0.00,,,0.00,0.00,VWS V14.01,2013-05-25 07:34:00,
2013-05-25 03:35:00,43.0,39.1,30.31,ESE,105,0.0,0.0,86,0.00,,,0.00,0.00,VWS V14.01,2013-05-25 07:35:00,
2013-05-25 03:38:00,42.9,39.3,30.31,ESE,105,0.0,0.0,87,0.00,,,0.00,0.00,VWS V14.01,2013-05-25 07:38:00,
2013-05-25 03:39:00,42.8,39.2,30.31,ESE,105,0.0,0.0,87,0.00,,,0.00,0.00,VWS V14.01,2013-05-25 07:39:00,
2013-05-25 03:40:00,42.8,39.2,30.31,ESE,105,0.0,0.0,87,0.00,,,0.00,0.00,VWS V14.01,2013-05-25 07:40:00,
2013-05-25 03:43:00,42.7,39.1,30.30,ESE,105,0.0,0.0,87,0.00,,,0.00,0.00,VWS V14.01,2013-05-25 07:43:00,
2013-05-25 03:44:00,42.6,39.0,30.30,ESE,105,0.0,0.0,87,0.00,,,0.00,0.00,VWS V14.01,2013-05-25 07:44:00,
2013-05-25 03:45:00,42.6,39.0,30.30,ESE,105,0.0,0.0,87,0.00,,,0.00,0.00,VWS V14.01,2013-05-25 07:45:00,
2013-05-25 03:48:00,42.5,38.9,30.30,ESE,105,0.0,0.0,87,0.00,,,0.00,0.00,VWS V14.01,2013-05-25 07:48:00,
2013-05-25 03:49:00,42.5,38.9,30.30,ESE,105,0.0,0.0,87,0.00,,,0.00,0.00,VWS V14.01,2013-05-25 07:49:00,
2013-05-25 03:50:00,42.5,38.9,30.30,ESE,105,0.0,0.0,87,0.00,,,0.00,0.00,VWS V14.01,2013-05-25 07:50:00,
2013-05-25 03:53:00,42.4,38.8,30.30,ESE,105,0.0,0.0,87,0.00,,,0.00,0.00,VWS V14.01,2013-05-25 07:53:00,
2013-05-25 03:54:00,42.4,38.8,30.30,ESE,105,0.0,0.0,87,0.00,,,0.00,0.00,VWS V14.01,2013-05-25 07:54:00,
2013-05-25 03:55:00,42.4,38.8,30.30,ESE,105,0.0,0.0,87,0.00,,,0.00,0.00,VWS V14.01,2013-05-25 07:55:00,
2013-05-25 03:58:00,42.3,38.7,30.30,ESE,105,0.0,0.0,87,0.00,,,0.00,0.00,VWS V14.01,2013-05-25 07:58:00,
2013-05-25 03:59:00,42.3,38.7,30.30,ESE,105,0.0,0.0,87,0.00,,,0.00,0.00,VWS V14.01,2013-05-25 07:59:00,
2013-05-25 04:00:00,42.3,38.7,30.30,ESE,105,0.0,0.0,87,0.00,,,0.00,0.00,VWS V14.01,2013-05-25 08:00:00,
2013-05-25 04:03:00,42.2,38.9,30.30,ESE,105,0.0,0.0,88,0.00,,,0.00,0.00,VWS V14.01,2013-05-25 08:03:00,
2013-05-25 04:04:00,42.2,38.9,30.30,ESE,105,0.0,0.0,88,0.00,,,0.00,0.00,VWS V14.01,2013-05-25 08:04:00,
2013-05-25 04:05:00,42.1,38.8,30.30,ESE,105,0.0,0.0,88,0.00,,,0.00,0.00,VWS V14.01,2013-05-25 08:05:00,
2013-05-25 04:08:00,42.1,38.8,30.30,ESE,105,0.0,0.0,88,0.00,,,0.00,0.00,VWS V14.01,2013-05-25 08:08:00,
2013-05-25 04:09:00,42.1,39.1,30.30,ESE,105,0.0,0.0,89,0.00,,,0.00,0.00,VWS V14.01,2013-05-25 08:09:00,
2013-05-25 04:10:00,42.1,39.1,30.30,ESE,105,0.0,0.0,89,0.00,,,0.00,0.00,VWS V14.01,2013-05-25 08:10:00,
2013-05-25 04:13:00,42.1,39.1,30.30,ESE,105,0.0,0.0,89,0.00,,,0.00,0.00,VWS V14.01,2013-05-25 08:13:00,
2013-05-25 04:14:00,42.1,39.1,30.30,ESE,105,0.0,0.0,89,0.00,,,0.00,0.00,VWS V14.01,2013-05-25 08:14:00,
2013-05-25 04:15:00,42.1,39.1,30.30,ESE,105,0.0,0.0,89,0.00,,,0.00,0.00,VWS V14.01,2013-05-25 08:15:00,
2013-05-25 04:18:00,42.2,39.2,30.30,ESE,105,0.0,0.0,89,0.00,,,0.00,0.00,VWS V14.01,2013-05-25 08:18:00,
2013-05-25 04:19:00,42.1,39.1,30.29,ESE,105,0.0,0.0,89,0.00,,,0.00,0.00,VWS V14.01,2013-05-25 08:19:00,
2013-05-25 04:20:00,42.2,39.2,30.29,ESE,105,0.0,0.0,89,0.00,,,0.00,0.00,VWS V14.01,2013-05-25 08:20:00,
2013-05-25 04:23:00,42.1,39.1,30.29,ESE,105,0.0,0.0,89,0.00,,,0.00,0.00,VWS V14.01,2013-05-25 08:23:00,
2013-05-25 04:24:00,42.1,39.1,30.29,ESE,105,0.0,0.0,89,0.00,,,0.00,0.00,VWS V14.01,2013-05-25 08:24:00,
2013-05-25 04:25:00,42.1,39.1,30.29,ESE,105,0.0,0.0,89,0.00,,,0.00,0.00,VWS V14.01,2013-05-25 08:25:00,
2013-05-25 04:29:00,42.2,39.2,30.29,ESE,105,0.0,0.0,89,0.00,,,0.00,0.00,VWS V14.01,2013-05-25 08:29:00,
2013-05-25 04:30:00,42.1,39.1,30.29,ESE,105,0.0,0.0,89,0.00,,,0.00,0.00,VWS V14.01,2013-05-25 08:30:00,
2013-05-25 04:34:00,42.2,39.2,30.29,ESE,105,0.0,0.0,89,0.00,,,0.00,0.00,VWS V14.01,2013-05-25 08:34:00,
2013-05-25 04:35:00,42.2,39.2,30.29,ESE,105,0.0,0.0,89,0.00,,,0.00,0.00,VWS V14.01,2013-05-25 08:35:00,
2013-05-25 04:39:00,42.2,39.2,30.29,ESE,105,0.0,0.0,89,0.00,,,0.00,0.00,VWS V14.01,2013-05-25 08:39:00,
2013-05-25 04:40:00,42.2,39.2,30.29,ESE,105,0.0,0.0,89,0.00,,,0.00,0.00,VWS V14.01,2013-05-25 08:40:00,
2013-05-25 04:44:00,42.4,39.4,30.29,ESE,105,0.0,0.0,89,0.00,,,0.00,0.00,VWS V14.01,2013-05-25 08:44:00,
2013-05-25 04:45:00,42.4,39.1,30.29,ESE,105,0.0,0.0,88,0.00,,,0.00,0.00,VWS V14.01,2013-05-25 08:45:00,
2013-05-25 04:49:00,42.5,39.2,30.29,ESE,105,0.0,0.0,88,0.00,,,0.00,0.00,VWS V14.01,2013-05-25 08:49:00,
2013-05-25 04:50:00,42.6,39.3,30.29,ESE,105,0.0,0.0,88,0.00,,,0.00,0.00,VWS V14.01,2013-05-25 08:50:00,
2013-05-25 04:54:00,42.7,39.4,30.29,ESE,105,0.0,0.0,88,0.00,,,0.00,0.00,VWS V14.01,2013-05-25 08:54:00,
2013-05-25 04:55:00,42.7,39.4,30.29,ESE,105,0.0,0.0,88,0.00,,,0.00,0.00,VWS V14.01,2013-05-25 08:55:00,
2013-05-25 04:59:00,42.7,39.1,30.29,ESE,105,0.0,0.0,87,0.00,,,0.00,0.00,VWS V14.01,2013-05-25 08:59:00,
2013-05-25 05:00:00,42.7,39.1,30.29,ESE,105,0.0,0.0,87,0.00,,,0.00,0.00,VWS V14.01,2013-05-25 09:00:00,
2013-05-25 05:01:00,42.7,39.1,30.29,ESE,105,0.0,0.0,87,0.00,,,0.00,0.00,VWS V14.01,2013-05-25 09:01:00,
2013-05-25 05:04:00,42.8,39.2,30.29,ESE,105,0.0,0.0,87,0.00,,,0.00,0.00,VWS V14.01,2013-05-25 09:04:00,
2013-05-25 05:05:00,42.8,39.2,30.29,ESE,105,0.0,0.0,87,0.00,,,0.00,0.00,VWS V14.01,2013-05-25 09:05:00,
2013-05-25 05:06:00,42.8,39.2,30.29,ESE,105,0.0,0.0,87,0.00,,,0.00,0.00,VWS V14.01,2013-05-25 09:06:00,
2013-05-25 05:09:00,42.8,39.2,30.29,ESE,105,0.0,0.0,87,0.00,,,0.00,0.00,VWS V14.01,2013-05-25 09:09:00,
2013-05-25 05:10:00,42.8,39.2,30.29,ESE,105,0.0,0.0,87,0.00,,,0.00,0.00,VWS V14.01,2013-05-25 09:10:00,
2013-05-25 05:11:00,42.8,39.2,30.29,ESE,105,0.0,0.0,87,0.00,,,0.00,0.00,VWS V14.01,2013-05-25 09:11:00,
2013-05-25 05:14:00,42.9,39.3,30.28,ESE,105,0.0,0.0,87,0.00,,,0.00,0.00,VWS V14.01,2013-05-25 09:14:00,
2013-05-25 05:15:00,43.0,39.4,30.28,ESE,105,0.0,0.0,87,0.00,,,0.00,0.00,VWS V14.01,2013-05-25 09:15:00,
2013-05-25 05:16:00,43.0,39.4,30.28,ESE,105,0.0,0.0,87,0.00,,,0.00,0.00,VWS V14.01,2013-05-25 09:16:00,
2013-05-25 05:19:00,43.3,39.4,30.28,ESE,105,0.0,0.0,86,0.00,,,0.00,0.00,VWS V14.01,2013-05-25 09:19:00,
2013-05-25 05:20:00,43.3,39.4,30.28,ESE,105,0.0,0.0,86,0.00,,,0.00,0.00,VWS V14.01,2013-05-25 09:20:00,
2013-05-25 05:21:00,43.4,39.5,30.28,ESE,105,0.0,0.0,86,0.00,,,0.00,0.00,VWS V14.01,2013-05-25 09:21:00,
2013-05-25 05:24:00,43.6,39.7,30.28,ESE,105,0.0,0.0,86,0.00,,,0.00,0.00,VWS V14.01,2013-05-25 09:24:00,
2013-05-25 05:25:00,43.7,39.8,30.28,ESE,105,0.0,0.0,86,0.00,,,0.00,0.00,VWS V14.01,2013-05-25 09:25:00,
2013-05-25 05:26:00,43.7,39.8,30.28,ESE,105,1.0,1.0,86,0.00,,,0.00,0.00,VWS V14.01,2013-05-25 09:26:00,
2013-05-25 05:29:00,44.0,39.8,30.28,ESE,105,0.0,0.0,85,0.00,,,0.00,0.00,VWS V14.01,2013-05-25 09:29:00,
2013-05-25 05:30:00,44.0,39.8,30.28,SE,129,0.0,0.0,85,0.00,,,0.00,0.00,VWS V14.01,2013-05-25 09:30:00,
2013-05-25 05:31:00,44.0,39.8,30.28,SE,129,0.0,0.0,85,0.00,,,0.00,0.00,VWS V14.01,2013-05-25 09:31:00,
2013-05-25 05:34:00,44.2,39.7,30.27,SE,128,0.0,0.0,84,0.00,,,0.00,0.00,VWS V14.01,2013-05-25 09:34:00,
2013-05-25 05:35:00,44.2,39.7,30.28,SE,128,0.0,0.0,84,0.00,,,0.00,0.00,VWS V14.01,2013-05-25 09:35:00,
2013-05-25 05:36:00,44.3,39.8,30.28,SE,128,0.0,0.0,84,0.00,,,0.00,0.00,VWS V14.01,2013-05-25 09:36:00,
2013-05-25 05:39:00,44.3,39.8,30.28,SE,128,0.0,0.0,84,0.00,,,0.00,0.00,VWS V14.01,2013-05-25 09:39:00,
2013-05-25 05:40:00,44.4,39.9,30.28,SE,128,0.0,1.0,84,0.00,,,0.00,0.00,VWS V14.01,2013-05-25 09:40:00,
2013-05-25 05:41:00,44.4,39.9,30.28,SE,128,0.0,0.0,84,0.00,,,0.00,0.00,VWS V14.01,2013-05-25 09:41:00,
2013-05-25 05:44:00,44.5,39.7,30.28,SSE,159,0.0,1.0,83,0.00,,,0.00,0.00,VWS V14.01,2013-05-25 09:44:00,
2013-05-25 05:45:00,44.5,39.7,30.28,SE,127,0.0,0.0,83,0.00,,,0.00,0.00,VWS V14.01,2013-05-25 09:45:00,
2013-05-25 05:46:00,44.5,39.7,30.28,SE,127,0.0,0.0,83,0.00,,,0.00,0.00,VWS V14.01,2013-05-25 09:46:00,
2013-05-25 05:50:00,44.5,39.7,30.28,SE,128,0.0,0.0,83,0.00,,,0.00,0.00,VWS V14.01,2013-05-25 09:50:00,
2013-05-25 05:51:00,44.5,39.7,30.28,ESE,121,0.0,1.0,83,0.00,,,0.00,0.00,VWS V14.01,2013-05-25 09:51:00,
2013-05-25 05:55:00,44.4,39.6,30.29,ESE,121,0.0,0.0,83,0.00,,,0.00,0.00,VWS V14.01,2013-05-25 09:55:00,
2013-05-25 05:56:00,44.4,39.9,30.29,ESE,121,0.0,0.0,84,0.00,,,0.00,0.00,VWS V14.01,2013-05-25 09:56:00,
2013-05-25 06:00:00,44.3,39.8,30.29,ESE,121,0.0,0.0,84,0.00,,,0.00,0.00,VWS V14.01,2013-05-25 10:00:00,
2013-05-25 06:01:00,44.3,39.8,30.29,ESE,121,0.0,0.0,84,0.00,,,0.00,0.00,VWS V14.01,2013-05-25 10:01:00,
2013-05-25 06:02:00,44.2,39.7,30.29,ESE,121,0.0,0.0,84,0.00,,,0.00,0.00,VWS V14.01,2013-05-25 10:02:00,
2013-05-25 06:05:00,44.2,39.7,30.29,ESE,121,0.0,0.0,84,0.00,,,0.00,0.00,VWS V14.01,2013-05-25 10:05:00,
2013-05-25 06:06:00,44.1,39.6,30.29,ESE,121,0.0,0.0,84,0.00,,,0.00,0.00,VWS V14.01,2013-05-25 10:06:00,
2013-05-25 06:07:00,44.1,39.6,30.29,ESE,121,0.0,0.0,84,0.00,,,0.00,0.00,VWS V14.01,2013-05-25 10:07:00,
2013-05-25 06:10:00,44.0,39.8,30.29,ESE,121,0.0,0.0,85,0.00,,,0.00,0.00,VWS V14.01,2013-05-25 10:10:00,
2013-05-25 06:11:00,44.0,39.8,30.29,ESE,121,0.0,0.0,85,0.00,,,0.00,0.00,VWS V14.01,2013-05-25 10:11:00,
2013-05-25 06:12:00,44.0,39.8,30.29,ESE,121,0.0,0.0,85,0.00,,,0.00,0.00,VWS V14.01,2013-05-25 10:12:00,
2013-05-25 06:15:00,44.0,39.8,30.29,ESE,121,0.0,0.0,85,0.00,,,0.00,0.00,VWS V14.01,2013-05-25 10:15:00,
2013-05-25 06:16:00,43.9,39.7,30.29,ESE,121,0.0,0.0,85,0.00,,,0.00,0.00,VWS V14.01,2013-05-25 10:16:00,
2013-05-25 06:17:00,43.9,39.7,30.29,ESE,121,0.0,0.0,85,0.00,,,0.00,0.00,VWS V14.01,2013-05-25 10:17:00,
2013-05-25 06:20:00,43.9,39.7,30.30,ESE,121,0.0,0.0,85,0.00,,,0.00,0.00,VWS V14.01,2013-05-25 10:20:00,
2013-05-25 06:21:00,43.9,39.7,30.29,ESE,121,0.0,0.0,85,0.00,,,0.00,0.00,VWS V14.01,2013-05-25 10:21:00,
2013-05-25 06:22:00,43.8,39.9,30.29,ESE,121,0.0,0.0,86,0.00,,,0.00,0.00,VWS V14.01,2013-05-25 10:22:00,
2013-05-25 06:25:00,43.7,39.8,30.30,SSE,157,0.0,0.0,86,0.00,,,0.00,0.00,VWS V14.01,2013-05-25 10:25:00,
2013-05-25 06:26:00,43.7,39.8,30.30,SSE,157,0.0,0.0,86,0.00,,,0.00,0.00,VWS V14.01,2013-05-25 10:26:00,
2013-05-25 06:27:00,43.7,39.8,30.30,SSE,157,0.0,0.0,86,0.00,,,0.00,0.00,VWS V14.01,2013-05-25 10:27:00,
2013-05-25 06:30:00,43.6,39.7,30.30,SSE,157,0.0,0.0,86,0.00,,,0.00,0.00,VWS V14.01,2013-05-25 10:30:00,
2013-05-25 06:31:00,43.7,39.8,30.30,SSE,157,0.0,0.0,86,0.00,,,0.00,0.00,VWS V14.01,2013-05-25 10:31:00,
2013-05-25 06:32:00,43.6,39.7,30.30,SSE,157,0.0,0.0,86,0.00,,,0.00,0.00,VWS V14.01,2013-05-25 10:32:00,
2013-05-25 06:36:00,43.6,39.7,30.30,SSE,157,0.0,0.0,86,0.00,,,0.00,0.00,VWS V14.01,2013-05-25 10:36:00,
2013-05-25 06:37:00,43.6,39.7,30.30,SSE,157,0.0,0.0,86,0.00,,,0.00,0.00,VWS V14.01,2013-05-25 10:37:00,
2013-05-25 06:41:00,43.6,39.7,30.31,SSE,157,0.0,0.0,86,0.00,,,0.00,0.00,VWS V14.01,2013-05-25 10:41:00,
2013-05-25 06:42:00,43.6,40.0,30.31,SSE,157,0.0,0.0,87,0.00,,,0.00,0.00,VWS V14.01,2013-05-25 10:42:00,
2013-05-25 06:46:00,43.6,40.0,30.31,SSE,157,0.0,0.0,87,0.00,,,0.00,0.00,VWS V14.01,2013-05-25 10:46:00,
2013-05-25 06:47:00,43.6,40.0,30.31,SSE,157,0.0,0.0,87,0.00,,,0.00,0.00,VWS V14.01,2013-05-25 10:47:00,
2013-05-25 06:51:00,43.7,40.1,30.31,SSE,157,0.0,0.0,87,0.00,,,0.00,0.00,VWS V14.01,2013-05-25 10:51:00,
2013-05-25 06:52:00,43.8,40.2,30.31,SSE,157,0.0,0.0,87,0.00,,,0.00,0.00,VWS V14.01,2013-05-25 10:52:00,
2013-05-25 06:56:00,43.8,40.2,30.31,SSE,157,0.0,0.0,87,0.00,,,0.00,0.00,VWS V14.01,2013-05-25 10:56:00,
2013-05-25 06:57:00,43.9,40.3,30.31,SSE,157,0.0,0.0,87,0.00,,,0.00,0.00,VWS V14.01,2013-05-25 10:57:00,
2013-05-25 07:01:00,44.0,40.4,30.31,SSE,157,0.0,0.0,87,0.00,,,0.00,0.00,VWS V14.01,2013-05-25 11:01:00,
2013-05-25 07:02:00,44.1,40.5,30.31,SSE,157,0.0,0.0,87,0.00,,,0.00,0.00,VWS V14.01,2013-05-25 11:02:00,
2013-05-25 07:06:00,44.3,40.7,30.31,SSE,157,0.0,0.0,87,0.00,,,0.00,0.00,VWS V14.01,2013-05-25 11:06:00,
2013-05-25 07:07:00,44.4,40.8,30.31,SSE,157,0.0,0.0,87,0.00,,,0.00,0.00,VWS V14.01,2013-05-25 11:07:00,
2013-05-25 07:11:00,44.6,40.7,30.31,SSE,157,0.0,0.0,86,0.00,,,0.00,0.00,VWS V14.01,2013-05-25 11:11:00,
2013-05-25 07:12:00,44.7,40.8,30.31,SSE,157,0.0,0.0,86,0.00,,,0.00,0.00,VWS V14.01,2013-05-25 11:12:00,
2013-05-25 07:16:00,44.9,41.0,30.32,SSE,157,0.0,0.0,86,0.00,,,0.00,0.00,VWS V14.01,2013-05-25 11:16:00,
2013-05-25 07:17:00,45.0,41.1,30.32,SSE,157,0.0,0.0,86,0.00,,,0.00,0.00,VWS V14.01,2013-05-25 11:17:00,
2013-05-25 07:21:00,45.1,40.9,30.32,SSE,157,0.0,0.0,85,0.00,,,0.00,0.00,VWS V14.01,2013-05-25 11:21:00,
2013-05-25 07:22:00,45.2,41.0,30.32,SSE,157,0.0,0.0,85,0.00,,,0.00,0.00,VWS V14.01,2013-05-25 11:22:00,
2013-05-25 07:23:00,45.2,41.0,30.32,SSE,157,0.0,0.0,85,0.00,,,0.00,0.00,VWS V14.01,2013-05-25 11:23:00,
2013-05-25 07:26:00,45.4,41.2,30.32,SSE,157,0.0,0.0,85,0.00,,,0.00,0.00,VWS V14.01,2013-05-25 11:26:00,
2013-05-25 07:27:00,45.4,41.2,30.33,SSE,157,0.0,0.0,85,0.00,,,0.00,0.00,VWS V14.01,2013-05-25 11:27:00,
2013-05-25 07:28:00,45.5,41.3,30.33,SSE,157,0.0,0.0,85,0.00,,,0.00,0.00,VWS V14.01,2013-05-25 11:28:00,
2013-05-25 07:31:00,45.6,41.7,30.33,SSE,157,0.0,0.0,86,0.00,,,0.00,0.00,VWS V14.01,2013-05-25 11:31:00,
2013-05-25 07:32:00,45.7,41.8,30.33,SSE,157,0.0,0.0,86,0.00,,,0.00,0.00,VWS V14.01,2013-05-25 11:32:00,
2013-05-25 07:33:00,45.7,41.8,30.33,SSE,157,0.0,0.0,86,0.00,,,0.00,0.00,VWS V14.01,2013-05-25 11:33:00,
2013-05-25 07:36:00,45.9,42.0,30.34,SSE,157,0.0,0.0,86,0.00,,,0.00,0.00,VWS V14.01,2013-05-25 11:36:00,
2013-05-25 07:37:00,45.9,42.3,30.34,SSE,157,0.0,0.0,87,0.00,,,0.00,0.00,VWS V14.01,2013-05-25 11:37:00,
2013-05-25 07:38:00,46.0,42.3,30.33,SSE,157,0.0,0.0,87,0.00,,,0.00,0.00,VWS V14.01,2013-05-25 11:38:00,
2013-05-25 07:41:00,46.0,42.3,30.34,SSE,157,0.0,0.0,87,0.00,,,0.00,0.00,VWS V14.01,2013-05-25 11:41:00,
2013-05-25 07:42:00,46.0,42.3,30.34,SSE,157,0.0,0.0,87,0.00,,,0.00,0.00,VWS V14.01,2013-05-25 11:42:00,
2013-05-25 07:43:00,46.0,42.3,30.34,SE,140,0.0,0.0,87,0.00,,,0.00,0.00,VWS V14.01,2013-05-25 11:43:00,
2013-05-25 07:46:00,46.1,42.2,30.33,SE,136,0.0,0.0,86,0.00,,,0.00,0.00,VWS V14.01,2013-05-25 11:46:00,
2013-05-25 07:47:00,46.1,41.8,30.33,SE,136,0.0,0.0,85,0.00,,,0.00,0.00,VWS V14.01,2013-05-25 11:47:00,
2013-05-25 07:48:00,46.2,42.0,30.33,SSW,212,0.0,1.0,85,0.00,,,0.00,0.00,VWS V14.01,2013-05-25 11:48:00,
2013-05-25 07:51:00,46.5,41.9,30.34,SSW,212,0.0,0.0,84,0.00,,,0.00,0.00,VWS V14.01,2013-05-25 11:51:00,
2013-05-25 07:52:00,46.5,41.9,30.34,SSW,212,0.0,0.0,84,0.00,,,0.00,0.00,VWS V14.01,2013-05-25 11:52:00,
2013-05-25 07:53:00,46.5,41.9,30.34,SSW,212,0.0,0.0,84,0.00,,,0.00,0.00,VWS V14.01,2013-05-25 11:53:00,
2013-05-25 07:56:00,46.8,41.9,30.34,West,260,0.0,0.0,83,0.00,,,0.00,0.00,VWS V14.01,2013-05-25 11:56:00,
2013-05-25 07:57:00,46.8,41.9,30.34,West,260,0.0,1.0,83,0.00,,,0.00,0.00,VWS V14.01,2013-05-25 11:57:00,
2013-05-25 07:58:00,46.9,42.0,30.34,West,260,0.0,0.0,83,0.00,,,0.00,0.00,VWS V14.01,2013-05-25 11:58:00,
2013-05-25 07:59:00,47.0,42.1,30.34,West,260,0.0,0.0,83,0.00,,,0.00,0.00,VWS V14.01,2013-05-25 11:59:00,
2013-05-25 08:01:00,47.2,42.3,30.34,West,260,0.0,1.0,83,0.00,,,0.00,0.00,VWS V14.01,2013-05-25 12:01:00,
2013-05-25 08:02:00,47.3,42.4,30.34,West,260,1.0,1.0,83,0.00,,,0.00,0.00,VWS V14.01,2013-05-25 12:02:00,
2013-05-25 08:03:00,47.3,42.4,30.34,West,260,0.0,1.0,83,0.00,,,0.00,0.00,VWS V14.01,2013-05-25 12:03:00,
2013-05-25 08:04:00,47.4,42.5,30.34,West,260,0.0,0.0,83,0.00,,,0.00,0.00,VWS V14.01,2013-05-25 12:04:00,
2013-05-25 08:06:00,47.6,42.1,30.34,West,260,0.0,1.0,81,0.00,,,0.00,0.00,VWS V14.01,2013-05-25 12:06:00,
2013-05-25 08:07:00,47.7,42.2,30.34,West,260,0.0,0.0,81,0.00,,,0.00,0.00,VWS V14.01,2013-05-25 12:07:00,
2013-05-25 08:08:00,47.7,42.2,30.34,West,260,0.0,0.0,81,0.00,,,0.00,0.00,VWS V14.01,2013-05-25 12:08:00,
2013-05-25 08:09:00,47.8,42.3,30.34,West,260,0.0,0.0,81,0.00,,,0.00,0.00,VWS V14.01,2013-05-25 12:09:00,
2013-05-25 08:12:00,48.1,42.2,30.34,West,260,0.0,1.0,80,0.00,,,0.00,0.00,VWS V14.01,2013-05-25 12:12:00,
2013-05-25 08:13:00,48.2,42.3,30.34,WSW,252,2.0,4.0,80,0.00,,,0.00,0.00,VWS V14.01,2013-05-25 12:13:00,
2013-05-25 08:14:00,48.3,42.4,30.34,WSW,252,0.0,2.0,80,0.00,,,0.00,0.00,VWS V14.01,2013-05-25 12:14:00,
2013-05-25 08:17:00,48.5,42.6,30.34,WSW,252,1.0,1.0,80,0.00,,,0.00,0.00,VWS V14.01,2013-05-25 12:17:00,
2013-05-25 08:18:00,48.6,42.4,30.34,WSW,252,0.0,2.0,79,0.00,,,0.00,0.00,VWS V14.01,2013-05-25 12:18:00,
2013-05-25 08:19:00,48.7,42.5,30.34,WSW,252,0.0,2.0,79,0.00,,,0.00,0.00,VWS V14.01,2013-05-25 12:19:00,
2013-05-25 08:22:00,49.0,43.1,30.34,WSW,252,0.0,0.0,80,0.00,,,0.00,0.00,VWS V14.01,2013-05-25 12:22:00,
2013-05-25 08:23:00,49.1,42.9,30.34,WSW,252,0.0,0.0,79,0.00,,,0.00,0.00,VWS V14.01,2013-05-25 12:23:00,
2013-05-25 08:24:00,49.2,43.0,30.34,WSW,252,0.0,0.0,79,0.00,,,0.00,0.00,VWS V14.01,2013-05-25 12:24:00,
2013-05-25 08:27:00,49.4,42.8,30.35,WSW,252,0.0,0.0,78,0.00,,,0.00,0.00,VWS V14.01,2013-05-25 12:27:00,
2013-05-25 08:28:00,49.4,42.8,30.35,WSW,252,0.0,0.0,78,0.00,,,0.00,0.00,VWS V14.01,2013-05-25 12:28:00,
2013-05-25 08:29:00,49.5,42.9,30.35,WSW,252,0.0,0.0,78,0.00,,,0.00,0.00,VWS V14.01,2013-05-25 12:29:00,
2013-05-25 08:32:00,49.6,42.7,30.35,WSW,252,0.0,0.0,77,0.00,,,0.00,0.00,VWS V14.01,2013-05-25 12:32:00,
2013-05-25 08:33:00,49.7,42.8,30.35,WSW,252,0.0,0.0,77,0.00,,,0.00,0.00,VWS V14.01,2013-05-25 12:33:00,
2013-05-25 08:34:00,49.8,42.9,30.35,WSW,252,0.0,0.0,77,0.00,,,0.00,0.00,VWS V14.01,2013-05-25 12:34:00,
2013-05-25 08:37:00,49.9,43.0,30.35,WSW,252,0.0,0.0,77,0.00,,,0.00,0.00,VWS V14.01,2013-05-25 12:37:00,
2013-05-25 08:38:00,50.0,43.1,30.35,WSW,252,0.0,0.0,77,0.00,,,0.00,0.00,VWS V14.01,2013-05-25 12:38:00,
2013-05-25 08:39:00,50.0,43.1,30.34,WSW,252,0.0,0.0,77,0.00,,,0.00,0.00,VWS V14.01,2013-05-25 12:39:00,
2013-05-25 08:42:00,50.2,43.3,30.35,WSW,252,0.0,0.0,77,0.00,,,0.00,0.00,VWS V14.01,2013-05-25 12:42:00,
2013-05-25 08:43:00,50.3,43.4,30.35,WSW,252,0.0,0.0,77,0.00,,,0.00,0.00,VWS V14.01,2013-05-25 12:43:00,
2013-05-25 08:44:00,50.3,43.0,30.35,WSW,252,0.0,0.0,76,0.00,,,0.00,0.00,VWS V14.01,2013-05-25 12:44:00,
2013-05-25 08:47:00,50.5,43.2,30.35,WSW,252,0.0,0.0,76,0.00,,,0.00,0.00,VWS V14.01,2013-05-25 12:47:00,
2013-05-25 08:48:00,50.6,43.3,30.35,WSW,252,0.0,0.0,76,0.00,,,0.00,0.00,VWS V14.01,2013-05-25 12:48:00,
2013-05-25 08:49:00,50.6,43.0,30.35,WSW,252,0.0,1.0,75,0.00,,,0.00,0.00,VWS V14.01,2013-05-25 12:49:00,
2013-05-25 08:52:00,50.8,43.2,30.36,WSW,252,0.0,0.0,75,0.00,,,0.00,0.00,VWS V14.01,2013-05-25 12:52:00,
2013-05-25 08:53:00,50.8,43.2,30.35,WSW,252,0.0,0.0,75,0.00,,,0.00,0.00,VWS V14.01,2013-05-25 12:53:00,
2013-05-25 08:54:00,50.9,42.9,30.35,WSW,252,0.0,1.0,74,0.00,,,0.00,0.00,VWS V14.01,2013-05-25 12:54:00,
2013-05-25 08:57:00,51.1,43.1,30.35,WSW,252,2.0,3.0,74,0.00,,,0.00,0.00,VWS V14.01,2013-05-25 12:57:00,
2013-05-25 08:58:00,51.2,43.2,30.35,WSW,252,0.0,0.0,74,0.00,,,0.00,0.00,VWS V14.01,2013-05-25 12:58:00,
2013-05-25 08:59:00,51.2,43.2,30.35,WSW,252,0.0,0.0,74,0.00,,,0.00,0.00,VWS V14.01,2013-05-25 12:59:00,
2013-05-25 09:02:00,51.4,43.0,30.36,WSW,252,0.0,1.0,73,0.00,,,0.00,0.00,VWS V14.01,2013-05-25 13:02:00,
2013-05-25 09:03:00,51.5,43.1,30.36,WSW,252,0.0,2.0,73,0.00,,,0.00,0.00,VWS V14.01,2013-05-25 13:03:00,
2013-05-25 09:04:00,51.5,43.1,30.36,WSW,252,0.0,2.0,73,0.00,,,0.00,0.00,VWS V14.01,2013-05-25 13:04:00,
2013-05-25 09:07:00,51.7,43.0,30.36,WSW,251,0.0,2.0,72,0.00,,,0.00,0.00,VWS V14.01,2013-05-25 13:07:00,
2013-05-25 09:08:00,51.8,43.1,30.36,WSW,251,0.0,2.0,72,0.00,,,0.00,0.00,VWS V14.01,2013-05-25 13:08:00,
2013-05-25 09:09:00,51.8,42.7,30.36,WSW,251,1.0,2.0,71,0.00,,,0.00,0.00,VWS V14.01,2013-05-25 13:09:00,
2013-05-25 09:12:00,52.2,43.5,30.36,WSW,249,3.0,4.0,72,0.00,,,0.00,0.00,VWS V14.01,2013-05-25 13:12:00,
2013-05-25 09:13:00,52.3,43.2,30.36,WSW,248,1.0,3.0,71,0.00,,,0.00,0.00,VWS V14.01,2013-05-25 13:13:00,
2013-05-25 09:14:00,52.3,43.2,30.36,WSW,248,2.0,3.0,71,0.00,,,0.00,0.00,VWS V14.01,2013-05-25 13:14:00,
2013-05-25 09:17:00,52.5,43.4,30.36,WSW,247,1.0,1.0,71,0.00,,,0.00,0.00,VWS V14.01,2013-05-25 13:17:00,
2013-05-25 09:18:00,52.6,43.5,30.36,WSW,247,0.0,2.0,71,0.00,,,0.00,0.00,VWS V14.01,2013-05-25 13:18:00,
2013-05-25 09:19:00,52.6,43.5,30.36,WSW,247,0.0,0.0,71,0.00,,,0.00,0.00,VWS V14.01,2013-05-25 13:19:00,
2013-05-25 09:22:00,52.8,43.7,30.36,WSW,247,0.0,0.0,71,0.00,,,0.00,0.00,VWS V14.01,2013-05-25 13:22:00,
2013-05-25 09:23:00,52.9,43.8,30.36,WSW,247,1.0,1.0,71,0.00,,,0.00,0.00,VWS V14.01,2013-05-25 13:23:00,
2013-05-25 09:24:00,52.9,43.8,30.36,WSW,247,0.0,4.0,71,0.00,,,0.00,0.00,VWS V14.01,2013-05-25 13:24:00,
2013-05-25 09:27:00,53.0,43.1,30.36,WSW,246,0.0,1.0,69,0.00,,,0.00,0.00,VWS V14.01,2013-05-25 13:27:00,
2013-05-25 09:28:00,53.0,43.1,30.36,WSW,246,0.0,1.0,69,0.00,,,0.00,0.00,VWS V14.01,2013-05-25 13:28:00,
2013-05-25 09:29:00,53.1,43.6,30.36,WSW,246,2.0,3.0,70,0.00,,,0.00,0.00,VWS V14.01,2013-05-25 13:29:00,
2013-05-25 09:33:00,53.2,43.7,30.36,WSW,246,0.0,1.0,70,0.00,,,0.00,0.00,VWS V14.01,2013-05-25 13:33:00,
2013-05-25 09:34:00,53.2,43.7,30.36,WSW,246,0.0,2.0,70,0.00,,,0.00,0.00,VWS V14.01,2013-05-25 13:34:00,
2013-05-25 09:35:00,53.3,44.2,30.36,WSW,246,0.0,0.0,71,0.00,,,0.00,0.00,VWS V14.01,2013-05-25 13:35:00,
2013-05-25 09:38:00,53.6,43.7,30.36,West,262,3.0,3.0,69,0.00,,,0.00,0.00,VWS V14.01,2013-05-25 13:38:00,
2013-05-25 09:39:00,53.7,43.8,30.36,West,262,0.0,1.0,69,0.00,,,0.00,0.00,VWS V14.01,2013-05-25 13:39:00,
2013-05-25 09:40:00,53.7,43.8,30.36,West,259,2.0,3.0,69,0.00,,,0.00,0.00,VWS V14.01,2013-05-25 13:40:00,
2013-05-25 09:43:00,54.0,43.7,30.36,SSW,193,0.0,2.0,68,0.00,,,0.00,0.00,VWS V14.01,2013-05-25 13:43:00,
2013-05-25 09:44:00,54.1,43.4,30.36,SSW,196,1.0,3.0,67,0.00,,,0.00,0.00,VWS V14.01,2013-05-25 13:44:00,
2013-05-25 09:45:00,54.1,43.4,30.36,SSW,196,0.0,4.0,67,0.00,,,0.00,0.00,VWS V14.01,2013-05-25 13:45:00,
2013-05-25 09:48:00,54.4,43.7,30.36,SSW,196,3.0,3.0,67,0.00,,,0.00,0.00,VWS V14.01,2013-05-25 13:48:00,
2013-05-25 09:49:00,54.4,43.3,30.36,SSW,197,0.0,3.0,66,0.00,,,0.00,0.00,VWS V14.01,2013-05-25 13:49:00,
2013-05-25 09:50:00,54.5,43.4,30.36,SSW,199,4.0,4.0,66,0.00,,,0.00,0.00,VWS V14.01,2013-05-25 13:50:00,
2013-05-25 09:53:00,54.6,43.9,30.36,SW,225,0.0,1.0,67,0.00,,,0.00,0.00,VWS V14.01,2013-05-25 13:53:00,
2013-05-25 09:54:00,54.7,43.6,30.36,SW,225,3.0,4.0,66,0.00,,,0.00,0.00,VWS V14.01,2013-05-25 13:54:00,
2013-05-25 09:55:00,54.7,43.6,30.36,SW,225,2.0,4.0,66,0.00,,,0.00,0.00,VWS V14.01,2013-05-25 13:55:00,
2013-05-25 09:58:00,54.8,43.7,30.36,SW,225,0.0,3.0,66,0.00,,,0.00,0.00,VWS V14.01,2013-05-25 13:58:00,
2013-05-25 09:59:00,54.8,43.7,30.36,SW,225,3.0,3.0,66,0.00,,,0.00,0.00,VWS V14.01,2013-05-25 13:59:00,
2013-05-25 10:00:00,54.8,43.7,30.36,SW,228,1.0,6.0,66,0.00,,,0.00,0.00,VWS V14.01,2013-05-25 14:00:00,
2013-05-25 10:03:00,55.0,43.5,30.36,SW,227,0.0,0.0,65,0.00,,,0.00,0.00,VWS V14.01,2013-05-25 14:03:00,
2013-05-25 10:04:00,55.1,44.0,30.36,SW,227,1.0,3.0,66,0.00,,,0.00,0.00,VWS V14.01,2013-05-25 14:04:00,
2013-05-25 10:05:00,55.1,44.0,30.36,SW,227,0.0,0.0,66,0.00,,,0.00,0.00,VWS V14.01,2013-05-25 14:05:00,
2013-05-25 10:08:00,55.4,43.8,30.36,West,271,5.0,5.0,65,0.00,,,0.00,0.00,VWS V14.01,2013-05-25 14:08:00,
2013-05-25 10:09:00,55.4,43.8,30.36,West,277,4.0,6.0,65,0.00,,,0.00,0.00,VWS V14.01,2013-05-25 14:09:00,
2013-05-25 10:10:00,55.5,43.5,30.36,West,275,0.0,0.0,64,0.00,,,0.00,0.00,VWS V14.01,2013-05-25 14:10:00,
2013-05-25 10:13:00,55.6,43.6,30.36,WSW,250,0.0,1.0,64,0.00,,,0.00,0.00,VWS V14.01,2013-05-25 14:13:00,
2013-05-25 10:14:00,55.6,43.6,30.36,WSW,250,4.0,4.0,64,0.00,,,0.00,0.00,VWS V14.01,2013-05-25 14:14:00,
2013-05-25 10:15:00,55.7,43.7,30.36,WSW,250,2.0,4.0,64,0.00,,,0.00,0.00,VWS V14.01,2013-05-25 14:15:00,
2013-05-25 10:18:00,55.9,44.3,30.36,WSW,242,1.0,3.0,65,0.00,,,0.00,0.00,VWS V14.01,2013-05-25 14:18:00,
2013-05-25 10:20:00,56.1,44.9,30.36,WSW,242,2.0,2.0,66,0.00,,,0.00,0.00,VWS V14.01,2013-05-25 14:20:00,
2013-05-25 10:23:00,56.5,44.9,30.36,West,268,5.0,5.0,65,0.00,,,0.00,0.00,VWS V14.01,2013-05-25 14:23:00,
2013-05-25 10:25:00,56.6,44.2,30.36,West,271,4.0,4.0,63,0.00,,,0.00,0.00,VWS V14.01,2013-05-25 14:25:00,
2013-05-25 10:28:00,56.7,43.8,30.36,SW,233,0.0,3.0,62,0.00,,,0.00,0.00,VWS V14.01,2013-05-25 14:28:00,
2013-05-25 10:30:00,56.7,43.8,30.36,WSW,251,0.0,4.0,62,0.00,,,0.00,0.00,VWS V14.01,2013-05-25 14:30:00,
2013-05-25 10:33:00,56.8,43.5,30.35,WSW,249,1.0,4.0,61,0.00,,,0.00,0.00,VWS V14.01,2013-05-25 14:33:00,
2013-05-25 10:35:00,56.8,43.9,30.35,WSW,247,3.0,3.0,62,0.00,,,0.00,0.00,VWS V14.01,2013-05-25 14:35:00,
2013-05-25 10:38:00,56.8,43.5,30.35,WSW,258,0.0,2.0,61,0.00,,,0.00,0.00,VWS V14.01,2013-05-25 14:38:00,
2013-05-25 10:39:00,56.8,43.5,30.35,WSW,258,1.0,2.0,61,0.00,,,0.00,0.00,VWS V14.01,2013-05-25 14:39:00,
2013-05-25 10:40:00,56.8,43.5,30.35,WSW,258,1.0,3.0,61,0.00,,,0.00,0.00,VWS V14.01,2013-05-25 14:40:00,
2013-05-25 10:41:00,56.8,43.9,30.35,WSW,258,0.0,1.0,62,0.00,,,0.00,0.00,VWS V14.01,2013-05-25 14:41:00,
2013-05-25 10:43:00,56.9,44.0,30.35,WSW,251,5.0,6.0,62,0.00,,,0.00,0.00,VWS V14.01,2013-05-25 14:43:00,
2013-05-25 10:44:00,56.9,44.5,30.35,WSW,250,4.0,6.0,63,0.00,,,0.00,0.00,VWS V14.01,2013-05-25 14:44:00,
2013-05-25 10:45:00,56.9,44.0,30.35,WSW,248,3.0,6.0,62,0.00,,,0.00,0.00,VWS V14.01,2013-05-25 14:45:00,
2013-05-25 10:48:00,56.9,44.5,30.35,WSW,255,0.0,4.0,63,0.00,,,0.00,0.00,VWS V14.01,2013-05-25 14:48:00,
2013-05-25 10:49:00,56.9,44.0,30.35,WSW,256,2.0,4.0,62,0.00,,,0.00,0.00,VWS V14.01,2013-05-25 14:49:00,
2013-05-25 10:50:00,56.9,44.0,30.35,WSW,255,0.0,0.0,62,0.00,,,0.00,0.00,VWS V14.01,2013-05-25 14:50:00,
2013-05-25 10:53:00,57.1,44.6,30.35,WSW,255,0.0,2.0,63,0.00,,,0.00,0.00,VWS V14.01,2013-05-25 14:53:00,
2013-05-25 10:54:00,57.2,44.7,30.35,WSW,255,0.0,2.0,63,0.00,,,0.00,0.00,VWS V14.01,2013-05-25 14:54:00,
2013-05-25 10:55:00,57.2,44.3,30.35,WSW,255,0.0,0.0,62,0.00,,,0.00,0.00,VWS V14.01,2013-05-25 14:55:00,
2013-05-25 10:59:00,57.4,43.6,30.35,West,268,0.0,5.0,60,0.00,,,0.00,0.00,VWS V14.01,2013-05-25 14:59:00,
2013-05-25 11:00:00,57.5,43.3,30.34,West,268,0.0,1.0,59,0.00,,,0.00,0.00,VWS V14.01,2013-05-25 15:00:00,
2013-05-25 11:04:00,57.6,44.3,30.34,WSW,257,4.0,4.0,61,0.00,,,0.00,0.00,VWS V14.01,2013-05-25 15:04:00,
2013-05-25 11:05:00,57.6,43.8,30.34,WSW,256,5.0,5.0,60,0.00,,,0.00,0.00,VWS V14.01,2013-05-25 15:05:00,
2013-05-25 11:09:00,57.5,43.7,30.34,WSW,256,2.0,2.0,60,0.00,,,0.00,0.00,VWS V14.01,2013-05-25 15:09:00,
2013-05-25 11:10:00,57.5,43.7,30.34,WSW,256,0.0,1.0,60,0.00,,,0.00,0.00,VWS V14.01,2013-05-25 15:10:00,
2013-05-25 11:11:00,57.5,43.7,30.34,WSW,256,0.0,1.0,60,0.00,,,0.00,0.00,VWS V14.01,2013-05-25 15:11:00,
2013-05-25 11:14:00,57.7,44.4,30.35,WSW,256,0.0,1.0,61,0.00,,,0.00,0.00,VWS V14.01,2013-05-25 15:14:00,
2013-05-25 11:15:00,57.8,44.0,30.35,WSW,256,2.0,3.0,60,0.00,,,0.00,0.00,VWS V14.01,2013-05-25 15:15:00,
2013-05-25 11:16:00,57.8,44.0,30.35,WSW,256,0.0,3.0,60,0.00,,,0.00,0.00,VWS V14.01,2013-05-25 15:16:00,
2013-05-25 11:19:00,57.9,43.7,30.34,WSW,248,0.0,1.0,59,0.00,,,0.00,0.00,VWS V14.01,2013-05-25 15:19:00,
2013-05-25 11:20:00,58.0,43.3,30.34,WSW,247,1.0,5.0,58,0.00,,,0.00,0.00,VWS V14.01,2013-05-25 15:20:00,
2013-05-25 11:21:00,58.0,43.3,30.34,WSW,247,5.0,5.0,58,0.00,,,0.00,0.00,VWS V14.01,2013-05-25 15:21:00,
2013-05-25 11:24:00,57.9,42.3,30.34,WSW,247,2.0,2.0,56,0.00,,,0.00,0.00,VWS V14.01,2013-05-25 15:24:00,
2013-05-25 11:25:00,57.9,42.8,30.34,WSW,240,3.0,6.0,57,0.00,,,0.00,0.00,VWS V14.01,2013-05-25 15:25:00,
2013-05-25 11:26:00,57.9,42.8,30.34,WSW,240,3.0,6.0,57,0.00,,,0.00,0.00,VWS V14.01,2013-05-25 15:26:00,
2013-05-25 11:29:00,57.9,42.8,30.34,WSW,240,1.0,3.0,57,0.00,,,0.00,0.00,VWS V14.01,2013-05-25 15:29:00,
2013-05-25 11:30:00,58.0,43.3,30.34,WSW,238,2.0,3.0,58,0.00,,,0.00,0.00,VWS V14.01,2013-05-25 15:30:00,
2013-05-25 11:31:00,58.0,43.3,30.34,WSW,238,2.0,3.0,58,0.00,,,0.00,0.00,VWS V14.01,2013-05-25 15:31:00,
2013-05-25 11:34:00,58.1,42.5,30.33,SW,234,0.0,4.0,56,0.00,,,0.00,0.00,VWS V14.01,2013-05-25 15:34:00,
2013-05-25 11:35:00,58.1,42.5,30.33,SW,235,4.0,4.0,56,0.00,,,0.00,0.00,VWS V14.01,2013-05-25 15:35:00,
2013-05-25 11:36:00,58.2,43.1,30.33,SW,235,3.0,3.0,57,0.00,,,0.00,0.00,VWS V14.01,2013-05-25 15:36:00,
2013-05-25 11:39:00,58.3,41.8,30.33,SW,230,0.0,4.0,54,0.00,,,0.00,0.00,VWS V14.01,2013-05-25 15:39:00,
2013-05-25 11:40:00,58.3,42.2,30.33,SW,225,2.0,2.0,55,0.00,,,0.00,0.00,VWS V14.01,2013-05-25 15:40:00,
2013-05-25 11:41:00,58.4,42.8,30.33,SW,225,2.0,2.0,56,0.00,,,0.00,0.00,VWS V14.01,2013-05-25 15:41:00,
2013-05-25 11:44:00,58.8,42.7,30.33,SW,229,4.0,5.0,55,0.00,,,0.00,0.00,VWS V14.01,2013-05-25 15:44:00,
2013-05-25 11:45:00,58.8,42.7,30.33,WSW,257,4.0,4.0,55,0.00,,,0.00,0.00,VWS V14.01,2013-05-25 15:45:00,
2013-05-25 11:46:00,58.9,42.8,30.33,WSW,253,1.0,4.0,55,0.00,,,0.00,0.00,VWS V14.01,2013-05-25 15:46:00,
2013-05-25 11:49:00,59.3,42.7,30.33,West,278,3.0,6.0,54,0.00,,,0.00,0.00,VWS V14.01,2013-05-25 15:49:00,
2013-05-25 11:50:00,59.4,42.8,30.33,West,271,4.0,4.0,54,0.00,,,0.00,0.00,VWS V14.01,2013-05-25 15:50:00,
2013-05-25 11:51:00,59.4,42.8,30.33,West,271,3.0,4.0,54,0.00,,,0.00,0.00,VWS V14.01,2013-05-25 15:51:00,
2013-05-25 11:54:00,59.7,43.5,30.33,SW,228,4.0,7.0,55,0.00,,,0.00,0.00,VWS V14.01,2013-05-25 15:54:00,
2013-05-25 11:55:00,59.8,43.6,30.33,WSW,250,5.0,5.0,55,0.00,,,0.00,0.00,VWS V14.01,2013-05-25 15:55:00,
2013-05-25 11:56:00,59.8,43.1,30.33,WSW,252,3.0,5.0,54,0.00,,,0.00,0.00,VWS V14.01,2013-05-25 15:56:00,
2013-05-25 11:59:00,60.0,42.8,30.32,SW,232,3.0,5.0,53,0.00,,,0.00,0.00,VWS V14.01,2013-05-25 15:59:00,
2013-05-25 12:00:00,60.0,43.3,30.32,West,274,0.0,1.0,54,0.00,,,0.00,0.00,VWS V14.01,2013-05-25 16:00:00,
2013-05-25 12:01:00,60.0,43.3,30.32,West,274,1.0,1.0,54,0.00,,,0.00,0.00,VWS V14.01,2013-05-25 16:01:00,
2013-05-25 12:04:00,60.0,43.3,30.33,West,262,0.0,1.0,54,0.00,,,0.00,0.00,VWS V14.01,2013-05-25 16:04:00,
2013-05-25 12:05:00,60.1,43.4,30.33,West,263,3.0,3.0,54,0.00,,,0.00,0.00,VWS V14.01,2013-05-25 16:05:00,
2013-05-25 12:06:00,60.2,42.5,30.33,West,263,0.0,0.0,52,0.00,,,0.00,0.00,VWS V14.01,2013-05-25 16:06:00,
2013-05-25 12:09:00,60.4,41.7,30.32,West,277,3.0,6.0,50,0.00,,,0.00,0.00,VWS V14.01,2013-05-25 16:09:00,
2013-05-25 12:10:00,60.4,42.2,30.33,West,279,3.0,3.0,51,0.00,,,0.00,0.00,VWS V14.01,2013-05-25 16:10:00,
2013-05-25 12:11:00,60.4,42.2,30.32,SW,236,2.0,4.0,51,0.00,,,0.00,0.00,VWS V14.01,2013-05-25 16:11:00,
2013-05-25 12:14:00,60.5,42.3,30.33,West,273,0.0,3.0,51,0.00,,,0.00,0.00,VWS V14.01,2013-05-25 16:14:00,
2013-05-25 12:15:00,60.5,42.8,30.33,West,273,0.0,1.0,52,0.00,,,0.00,0.00,VWS V14.01,2013-05-25 16:15:00,
2013-05-25 12:16:00,60.5,42.3,30.33,West,273,1.0,3.0,51,0.00,,,0.00,0.00,VWS V14.01,2013-05-25 16:16:00,
2013-05-25 12:19:00,60.6,41.9,30.33,WSW,257,0.0,1.0,50,0.00,,,0.00,0.00,VWS V14.01,2013-05-25 16:19:00,
2013-05-25 12:20:00,60.7,42.5,30.33,WSW,257,2.0,2.0,51,0.00,,,0.00,0.00,VWS V14.01,2013-05-25 16:20:00,
2013-05-25 12:21:00,60.7,42.5,30.33,WSW,257,1.0,1.0,51,0.00,,,0.00,0.00,VWS V14.01,2013-05-25 16:21:00,
2013-05-25 12:24:00,60.8,42.6,30.33,West,260,4.0,5.0,51,0.00,,,0.00,0.00,VWS V14.01,2013-05-25 16:24:00,
2013-05-25 12:25:00,60.9,42.2,30.33,WNW,285,5.0,6.0,50,0.00,,,0.00,0.00,VWS V14.01,2013-05-25 16:25:00,
2013-05-25 12:26:00,60.9,42.2,30.33,WNW,282,2.0,4.0,50,0.00,,,0.00,0.00,VWS V14.01,2013-05-25 16:26:00,
2013-05-25 12:29:00,60.9,42.7,30.33,West,281,2.0,2.0,51,0.00,,,0.00,0.00,VWS V14.01,2013-05-25 16:29:00,
2013-05-25 12:30:00,61.0,41.7,30.33,WNW,282,0.0,5.0,49,0.00,,,0.00,0.00,VWS V14.01,2013-05-25 16:30:00,
2013-05-25 12:31:00,61.1,42.3,30.33,WNW,282,0.0,0.0,50,0.00,,,0.00,0.00,VWS V14.01,2013-05-25 16:31:00,
2013-05-25 12:34:00,61.4,41.6,30.33,WNW,282,0.0,1.0,48,0.00,,,0.00,0.00,VWS V14.01,2013-05-25 16:34:00,
2013-05-25 12:35:00,61.4,41.6,30.32,WNW,282,2.0,2.0,48,0.00,,,0.00,0.00,VWS V14.01,2013-05-25 16:35:00,
2013-05-25 12:36:00,61.5,42.2,30.32,West,272,6.0,6.0,49,0.00,,,0.00,0.00,VWS V14.01,2013-05-25 16:36:00,
2013-05-25 12:39:00,61.8,41.4,30.32,WSW,252,0.0,5.0,47,0.00,,,0.00,0.00,VWS V14.01,2013-05-25 16:39:00,
2013-05-25 12:40:00,61.7,41.3,30.33,SW,234,3.0,3.0,47,0.00,,,0.00,0.00,VWS V14.01,2013-05-25 16:40:00,
2013-05-25 12:41:00,61.8,41.4,30.33,SW,229,1.0,4.0,47,0.00,,,0.00,0.00,VWS V14.01,2013-05-25 16:41:00,
2013-05-25 12:45:00,61.6,41.2,30.32,SW,227,2.0,2.0,47,0.00,,,0.00,0.00,VWS V14.01,2013-05-25 16:45:00,
2013-05-25 12:46:00,61.6,41.7,30.32,SW,227,0.0,1.0,48,0.00,,,0.00,0.00,VWS V14.01,2013-05-25 16:46:00,
2013-05-25 12:50:00,61.9,43.1,30.33,SW,228,3.0,3.0,50,0.00,,,0.00,0.00,VWS V14.01,2013-05-25 16:50:00,
2013-05-25 12:51:00,62.0,42.1,30.33,SW,232,2.0,4.0,48,0.00,,,0.00,0.00,VWS V14.01,2013-05-25 16:51:00,
2013-05-25 12:55:00,62.0,41.6,30.32,WSW,243,0.0,2.0,47,0.00,,,0.00,0.00,VWS V14.01,2013-05-25 16:55:00,
2013-05-25 12:56:00,62.0,41.0,30.32,WSW,243,0.0,0.0,46,0.00,,,0.00,0.00,VWS V14.01,2013-05-25 16:56:00,
2013-05-25 13:00:00,62.2,42.3,30.32,WSW,238,2.0,4.0,48,0.00,,,0.00,0.00,VWS V14.01,2013-05-25 17:00:00,
2013-05-25 13:01:00,62.2,42.3,30.32,WSW,238,1.0,2.0,48,0.00,,,0.00,0.00,VWS V14.01,2013-05-25 17:01:00,
2013-05-25 13:02:00,62.2,42.3,30.32,WSW,238,0.0,2.0,48,0.00,,,0.00,0.00,VWS V14.01,2013-05-25 17:02:00,
2013-05-25 13:05:00,62.3,42.4,30.33,WSW,253,0.0,1.0,48,0.00,,,0.00,0.00,VWS V14.01,2013-05-25 17:05:00,
2013-05-25 13:06:00,62.3,41.8,30.33,WSW,253,0.0,1.0,47,0.00,,,0.00,0.00,VWS V14.01,2013-05-25 17:06:00,
2013-05-25 13:07:00,62.4,41.9,30.33,WSW,253,0.0,1.0,47,0.00,,,0.00,0.00,VWS V14.01,2013-05-25 17:07:00,
2013-05-25 13:10:00,62.4,41.9,30.33,WSW,253,0.0,0.0,47,0.00,,,0.00,0.00,VWS V14.01,2013-05-25 17:10:00,
2013-05-25 13:11:00,62.5,42.0,30.33,NNW,328,0.0,0.0,47,0.00,,,0.00,0.00,VWS V14.01,2013-05-25 17:11:00,
2013-05-25 13:12:00,62.6,43.2,30.33,NNW,328,0.0,0.0,49,0.00,,,0.00,0.00,VWS V14.01,2013-05-25 17:12:00,
2013-05-25 13:15:00,63.0,43.0,30.33,NNW,328,0.0,0.0,48,0.00,,,0.00,0.00,VWS V14.01,2013-05-25 17:15:00,
2013-05-25 13:16:00,63.1,41.4,30.33,NNW,328,0.0,1.0,45,0.00,,,0.00,0.00,VWS V14.01,2013-05-25 17:16:00,
2013-05-25 13:17:00,63.2,41.5,30.33,NNW,328,0.0,1.0,45,0.00,,,0.00,0.00,VWS V14.01,2013-05-25 17:17:00,
2013-05-25 13:20:00,63.4,41.1,30.33,WNW,302,1.0,3.0,44,0.00,,,0.00,0.00,VWS V14.01,2013-05-25 17:20:00,
2013-05-25 13:21:00,63.3,41.6,30.33,WNW,302,0.0,4.0,45,0.00,,,0.00,0.00,VWS V14.01,2013-05-25 17:21:00,
2013-05-25 13:22:00,63.3,41.0,30.33,WSW,244,0.0,5.0,44,0.00,,,0.00,0.00,VWS V14.01,2013-05-25 17:22:00,
2013-05-25 13:25:00,63.1,41.4,30.33,WSW,244,1.0,1.0,45,0.00,,,0.00,0.00,VWS V14.01,2013-05-25 17:25:00,
2013-05-25 13:26:00,63.1,41.4,30.33,WSW,244,1.0,3.0,45,0.00,,,0.00,0.00,VWS V14.01,2013-05-25 17:26:00,
2013-05-25 13:27:00,63.1,40.9,30.33,West,266,2.0,4.0,44,0.00,,,0.00,0.00,VWS V14.01,2013-05-25 17:27:00,
2013-05-25 13:30:00,63.0,41.3,30.33,West,261,0.0,0.0,45,0.00,,,0.00,0.00,VWS V14.01,2013-05-25 17:30:00,
2013-05-25 13:31:00,63.0,41.3,30.33,West,261,1.0,1.0,45,0.00,,,0.00,0.00,VWS V14.01,2013-05-25 17:31:00,
2013-05-25 13:32:00,63.0,41.3,30.33,West,261,1.0,1.0,45,0.00,,,0.00,0.00,VWS V14.01,2013-05-25 17:32:00,
2013-05-25 13:35:00,63.1,42.6,30.33,West,261,0.0,0.0,47,0.00,,,0.00,0.00,VWS V14.01,2013-05-25 17:35:00,
2013-05-25 13:36:00,63.1,41.4,30.33,West,261,0.0,0.0,45,0.00,,,0.00,0.00,VWS V14.01,2013-05-25 17:36:00,
2013-05-25 13:37:00,63.1,41.4,30.33,West,261,0.0,0.0,45,0.00,,,0.00,0.00,VWS V14.01,2013-05-25 17:37:00,
2013-05-25 13:40:00,63.4,42.3,30.33,West,261,0.0,0.0,46,0.00,,,0.00,0.00,VWS V14.01,2013-05-25 17:40:00,
2013-05-25 13:41:00,63.4,41.1,30.33,West,261,1.0,1.0,44,0.00,,,0.00,0.00,VWS V14.01,2013-05-25 17:41:00,
2013-05-25 13:42:00,63.4,40.5,30.33,West,261,1.0,3.0,43,0.00,,,0.00,0.00,VWS V14.01,2013-05-25 17:42:00,
2013-05-25 13:45:00,63.3,42.2,30.32,West,261,0.0,1.0,46,0.00,,,0.00,0.00,VWS V14.01,2013-05-25 17:45:00,
2013-05-25 13:46:00,63.3,41.0,30.32,West,261,0.0,0.0,44,0.00,,,0.00,0.00,VWS V14.01,2013-05-25 17:46:00,
2013-05-25 13:47:00,63.4,41.1,30.32,West,261,0.0,0.0,44,0.00,,,0.00,0.00,VWS V14.01,2013-05-25 17:47:00,
2013-05-25 13:50:00,63.7,42.0,30.32,West,261,1.0,1.0,45,0.00,,,0.00,0.00,VWS V14.01,2013-05-25 17:50:00,
2013-05-25 13:51:00,63.7,42.0,30.32,West,261,0.0,0.0,45,0.00,,,0.00,0.00,VWS V14.01,2013-05-25 17:51:00,
2013-05-25 13:52:00,63.8,43.2,30.32,West,261,0.0,0.0,47,0.00,,,0.00,0.00,VWS V14.01,2013-05-25 17:52:00,
2013-05-25 13:55:00,63.7,40.8,30.32,West,261,0.0,0.0,43,0.00,,,0.00,0.00,VWS V14.01,2013-05-25 17:55:00,
2013-05-25 13:56:00,63.7,41.4,30.32,West,261,2.0,2.0,44,0.00,,,0.00,0.00,VWS V14.01,2013-05-25 17:56:00,
2013-05-25 13:57:00,63.7,42.0,30.32,West,261,0.0,2.0,45,0.00,,,0.00,0.00,VWS V14.01,2013-05-25 17:57:00,
2013-05-25 14:01:00,63.8,41.5,30.32,West,261,0.0,1.0,44,0.00,,,0.00,0.00,VWS V14.01,2013-05-25 18:01:00,
2013-05-25 14:02:00,63.9,41.6,30.32,West,276,4.0,4.0,44,0.00,,,0.00,0.00,VWS V14.01,2013-05-25 18:02:00,
2013-05-25 14:06:00,63.8,40.9,30.32,WNW,298,3.0,4.0,43,0.00,,,0.00,0.00,VWS V14.01,2013-05-25 18:06:00,
2013-05-25 14:07:00,63.8,40.3,30.32,WNW,298,0.0,0.0,42,0.00,,,0.00,0.00,VWS V14.01,2013-05-25 18:07:00,
2013-05-25 14:11:00,63.6,40.1,30.32,WNW,298,0.0,0.0,42,0.00,,,0.00,0.00,VWS V14.01,2013-05-25 18:11:00,
2013-05-25 14:12:00,63.6,40.1,30.32,WNW,298,0.0,0.0,42,0.00,,,0.00,0.00,VWS V14.01,2013-05-25 18:12:00,
2013-05-25 14:16:00,63.7,40.2,30.32,WNW,298,0.0,3.0,42,0.00,,,0.00,0.00,VWS V14.01,2013-05-25 18:16:00,
2013-05-25 14:17:00,63.7,39.6,30.32,WNW,298,0.0,1.0,41,0.00,,,0.00,0.00,VWS V14.01,2013-05-25 18:17:00,
2013-05-25 14:21:00,63.7,40.2,30.32,WNW,298,0.0,0.0,42,0.00,,,0.00,0.00,VWS V14.01,2013-05-25 18:21:00,
2013-05-25 14:22:00,63.8,40.3,30.31,WNW,298,1.0,1.0,42,0.00,,,0.00,0.00,VWS V14.01,2013-05-25 18:22:00,
2013-05-25 14:23:00,63.9,40.4,30.31,WNW,298,0.0,1.0,42,0.00,,,0.00,0.00,VWS V14.01,2013-05-25 18:23:00,
2013-05-25 14:26:00,63.9,40.4,30.31,WNW,298,0.0,1.0,42,0.00,,,0.00,0.00,VWS V14.01,2013-05-25 18:26:00,
2013-05-25 14:27:00,64.0,41.7,30.31,WNW,298,2.0,3.0,44,0.00,,,0.00,0.00,VWS V14.01,2013-05-25 18:27:00,
2013-05-25 14:28:00,64.0,39.8,30.31,WNW,298,0.0,3.0,41,0.00,,,0.00,0.00,VWS V14.01,2013-05-25 18:28:00,
2013-05-25 14:31:00,63.9,40.4,30.31,WNW,298,0.0,1.0,42,0.00,,,0.00,0.00,VWS V14.01,2013-05-25 18:31:00,
2013-05-25 14:32:00,63.9,39.8,30.31,WNW,298,0.0,1.0,41,0.00,,,0.00,0.00,VWS V14.01,2013-05-25 18:32:00,
2013-05-25 14:33:00,63.9,40.4,30.31,WNW,298,1.0,1.0,42,0.00,,,0.00,0.00,VWS V14.01,2013-05-25 18:33:00,
2013-05-25 14:36:00,63.7,40.8,30.31,NW,314,0.0,0.0,43,0.00,,,0.00,0.00,VWS V14.01,2013-05-25 18:36:00,
2013-05-25 14:37:00,63.7,40.8,30.31,NW,315,2.0,2.0,43,0.00,,,0.00,0.00,VWS V14.01,2013-05-25 18:37:00,
2013-05-25 14:38:00,63.7,40.8,30.31,NW,315,1.0,3.0,43,0.00,,,0.00,0.00,VWS V14.01,2013-05-25 18:38:00,
2013-05-25 14:41:00,63.8,42.1,30.31,NW,315,0.0,2.0,45,0.00,,,0.00,0.00,VWS V14.01,2013-05-25 18:41:00,
2013-05-25 14:43:00,63.8,39.7,30.31,NW,315,3.0,4.0,41,0.00,,,0.00,0.00,VWS V14.01,2013-05-25 18:43:00,
2013-05-25 14:46:00,63.5,39.4,30.31,SW,233,0.0,1.0,41,0.00,,,0.00,0.00,VWS V14.01,2013-05-25 18:46:00,
2013-05-25 14:48:00,63.4,39.9,30.31,SW,233,0.0,0.0,42,0.00,,,0.00,0.00,VWS V14.01,2013-05-25 18:48:00,
2013-05-25 14:51:00,63.3,41.0,30.30,SW,236,8.0,9.0,44,0.00,,,0.00,0.00,VWS V14.01,2013-05-25 18:51:00,
2013-05-25 14:53:00,63.1,41.4,30.31,West,273,1.0,4.0,45,0.00,,,0.00,0.00,VWS V14.01,2013-05-25 18:53:00,
2013-05-25 14:56:00,62.9,41.3,30.31,West,273,0.0,0.0,45,0.00,,,0.00,0.00,VWS V14.01,2013-05-25 18:56:00,
2013-05-25 14:58:00,62.9,41.3,30.31,West,273,0.0,0.0,45,0.00,,,0.00,0.00,VWS V14.01,2013-05-25 18:58:00,
2013-05-25 15:01:00,62.9,42.4,30.30,West,273,1.0,1.0,47,0.00,,,0.00,0.00,VWS V14.01,2013-05-25 19:01:00,
2013-05-25 15:03:00,63.0,41.9,30.30,West,273,5.0,5.0,46,0.00,,,0.00,0.00,VWS V14.01,2013-05-25 19:03:00,
2013-05-25 15:06:00,62.9,41.3,30.30,WNW,291,3.0,4.0,45,0.00,,,0.00,0.00,VWS V14.01,2013-05-25 19:06:00,
2013-05-25 15:08:00,62.8,41.2,30.30,WNW,292,4.0,4.0,45,0.00,,,0.00,0.00,VWS V14.01,2013-05-25 19:08:00,
2013-05-25 15:11:00,62.7,41.6,30.30,WSW,256,1.0,1.0,46,0.00,,,0.00,0.00,VWS V14.01,2013-05-25 19:11:00,
2013-05-25 15:13:00,62.7,42.2,30.30,NNW,333,0.0,1.0,47,0.00,,,0.00,0.00,VWS V14.01,2013-05-25 19:13:00,
2013-05-25 15:16:00,62.9,41.8,30.30,NNW,333,2.0,2.0,46,0.00,,,0.00,0.00,VWS V14.01,2013-05-25 19:16:00,
2013-05-25 15:18:00,62.9,42.4,30.30,NNW,333,0.0,1.0,47,0.00,,,0.00,0.00,VWS V14.01,2013-05-25 19:18:00,
2013-05-25 15:21:00,63.0,41.9,30.29,NNW,328,0.0,0.0,46,0.00,,,0.00,0.00,VWS V14.01,2013-05-25 19:21:00,
2013-05-25 15:22:00,62.9,41.8,30.29,NNW,328,0.0,0.0,46,0.00,,,0.00,0.00,VWS V14.01,2013-05-25 19:22:00,
2013-05-25 15:23:00,63.0,42.5,30.29,NNW,328,0.0,0.0,47,0.00,,,0.00,0.00,VWS V14.01,2013-05-25 19:23:00,
2013-05-25 15:26:00,63.3,43.3,30.29,NNW,328,0.0,0.0,48,0.00,,,0.00,0.00,VWS V14.01,2013-05-25 19:26:00,
2013-05-25 15:27:00,63.3,43.3,30.29,NNW,328,2.0,3.0,48,0.00,,,0.00,0.00,VWS V14.01,2013-05-25 19:27:00,
2013-05-25 15:28:00,63.4,42.3,30.29,NNW,328,1.0,2.0,46,0.00,,,0.00,0.00,VWS V14.01,2013-05-25 19:28:00,
2013-05-25 15:31:00,63.5,42.4,30.29,NNW,328,2.0,3.0,46,0.00,,,0.00,0.00,VWS V14.01,2013-05-25 19:31:00,
2013-05-25 15:33:00,63.5,41.2,30.29,NNW,328,0.0,1.0,44,0.00,,,0.00,0.00,VWS V14.01,2013-05-25 19:33:00,
2013-05-25 15:36:00,63.4,41.7,30.29,NNW,328,0.0,1.0,45,0.00,,,0.00,0.00,VWS V14.01,2013-05-25 19:36:00,
2013-05-25 15:37:00,63.4,41.7,30.29,NNW,328,0.0,1.0,45,0.00,,,0.00,0.00,VWS V14.01,2013-05-25 19:37:00,
2013-05-25 15:38:00,63.4,42.3,30.29,NNW,328,0.0,0.0,46,0.00,,,0.00,0.00,VWS V14.01,2013-05-25 19:38:00,
2013-05-25 15:41:00,63.4,42.3,30.29,NNW,328,0.0,1.0,46,0.00,,,0.00,0.00,VWS V14.01,2013-05-25 19:41:00,
2013-05-25 15:42:00,63.4,41.7,30.29,NNW,328,0.0,1.0,45,0.00,,,0.00,0.00,VWS V14.01,2013-05-25 19:42:00,
2013-05-25 15:43:00,63.5,41.8,30.29,WNW,296,3.0,5.0,45,0.00,,,0.00,0.00,VWS V14.01,2013-05-25 19:43:00,
2013-05-25 15:47:00,63.0,40.8,30.29,West,275,0.0,2.0,44,0.00,,,0.00,0.00,VWS V14.01,2013-05-25 19:47:00,
2013-05-25 15:48:00,62.9,41.8,30.29,West,275,0.0,0.0,46,0.00,,,0.00,0.00,VWS V14.01,2013-05-25 19:48:00,
2013-05-25 15:49:00,62.9,41.8,30.29,West,275,1.0,1.0,46,0.00,,,0.00,0.00,VWS V14.01,2013-05-25 19:49:00,
2013-05-25 15:52:00,62.8,41.7,30.29,West,275,0.0,0.0,46,0.00,,,0.00,0.00,VWS V14.01,2013-05-25 19:52:00,
2013-05-25 15:53:00,62.7,41.6,30.29,West,275,0.0,1.0,46,0.00,,,0.00,0.00,VWS V14.01,2013-05-25 19:53:00,
2013-05-25 15:54:00,62.8,41.7,30.29,West,275,0.0,2.0,46,0.00,,,0.00,0.00,VWS V14.01,2013-05-25 19:54:00,
2013-05-25 15:57:00,62.8,42.8,30.29,South,190,0.0,2.0,48,0.00,,,0.00,0.00,VWS V14.01,2013-05-25 19:57:00,
2013-05-25 15:58:00,62.8,42.8,30.29,South,190,0.0,1.0,48,0.00,,,0.00,0.00,VWS V14.01,2013-05-25 19:58:00,
2013-05-25 15:59:00,62.8,42.3,30.29,South,190,0.0,1.0,47,0.00,,,0.00,0.00,VWS V14.01,2013-05-25 19:59:00,
2013-05-25 16:02:00,62.9,42.4,30.29,South,190,0.0,0.0,47,0.00,,,0.00,0.00,VWS V14.01,2013-05-25 20:02:00,
2013-05-25 16:03:00,62.9,42.9,30.29,South,191,0.0,1.0,48,0.00,,,0.00,0.00,VWS V14.01,2013-05-25 20:03:00,
2013-05-25 16:04:00,62.9,41.3,30.29,South,191,0.0,1.0,45,0.00,,,0.00,0.00,VWS V14.01,2013-05-25 20:04:00,
2013-05-25 16:07:00,62.8,40.6,30.29,South,191,0.0,0.0,44,0.00,,,0.00,0.00,VWS V14.01,2013-05-25 20:07:00,
2013-05-25 16:08:00,62.7,41.6,30.28,South,191,0.0,0.0,46,0.00,,,0.00,0.00,VWS V14.01,2013-05-25 20:08:00,
2013-05-25 16:09:00,62.7,41.6,30.28,South,191,0.0,0.0,46,0.00,,,0.00,0.00,VWS V14.01,2013-05-25 20:09:00,
2013-05-25 16:12:00,62.8,41.2,30.28,South,191,0.0,0.0,45,0.00,,,0.00,0.00,VWS V14.01,2013-05-25 20:12:00,
2013-05-25 16:13:00,62.9,41.3,30.28,South,191,0.0,0.0,45,0.00,,,0.00,0.00,VWS V14.01,2013-05-25 20:13:00,
2013-05-25 16:14:00,62.9,41.3,30.28,South,191,0.0,0.0,45,0.00,,,0.00,0.00,VWS V14.01,2013-05-25 20:14:00,
2013-05-25 16:17:00,63.0,42.5,30.28,West,265,3.0,4.0,47,0.00,,,0.00,0.00,VWS V14.01,2013-05-25 20:17:00,
2013-05-25 16:18:00,63.0,41.3,30.28,West,273,1.0,4.0,45,0.00,,,0.00,0.00,VWS V14.01,2013-05-25 20:18:00,
2013-05-25 16:19:00,62.9,41.3,30.28,West,273,0.0,1.0,45,0.00,,,0.00,0.00,VWS V14.01,2013-05-25 20:19:00,
2013-05-25 16:22:00,62.8,42.8,30.28,West,272,1.0,1.0,48,0.00,,,0.00,0.00,VWS V14.01,2013-05-25 20:22:00,
2013-05-25 16:24:00,62.7,42.2,30.28,West,272,0.0,1.0,47,0.00,,,0.00,0.00,VWS V14.01,2013-05-25 20:24:00,
2013-05-25 16:27:00,62.7,43.3,30.28,West,273,0.0,2.0,49,0.00,,,0.00,0.00,VWS V14.01,2013-05-25 20:27:00,
2013-05-25 16:29:00,62.8,43.4,30.28,West,273,0.0,2.0,49,0.00,,,0.00,0.00,VWS V14.01,2013-05-25 20:29:00,
2013-05-25 16:32:00,62.7,43.3,30.28,West,269,0.0,0.0,49,0.00,,,0.00,0.00,VWS V14.01,2013-05-25 20:32:00,
2013-05-25 16:34:00,62.7,43.3,30.28,West,269,1.0,2.0,49,0.00,,,0.00,0.00,VWS V14.01,2013-05-25 20:34:00,
2013-05-25 16:37:00,62.7,42.8,30.28,NW,325,0.0,1.0,48,0.00,,,0.00,0.00,VWS V14.01,2013-05-25 20:37:00,
2013-05-25 16:39:00,62.7,42.2,30.27,NW,325,0.0,0.0,47,0.00,,,0.00,0.00,VWS V14.01,2013-05-25 20:39:00,
2013-05-25 16:42:00,62.8,43.9,30.27,NW,325,0.0,0.0,50,0.00,,,0.00,0.00,VWS V14.01,2013-05-25 20:42:00,
2013-05-25 16:44:00,62.8,43.4,30.27,NW,325,1.0,1.0,49,0.00,,,0.00,0.00,VWS V14.01,2013-05-25 20:44:00,
2013-05-25 16:47:00,62.7,42.8,30.27,West,281,0.0,1.0,48,0.00,,,0.00,0.00,VWS V14.01,2013-05-25 20:47:00,
2013-05-25 16:49:00,62.7,43.8,30.27,WSW,252,0.0,0.0,50,0.00,,,0.00,0.00,VWS V14.01,2013-05-25 20:49:00,
2013-05-25 16:52:00,62.7,43.3,30.27,NW,317,0.0,2.0,49,0.00,,,0.00,0.00,VWS V14.01,2013-05-25 20:52:00,
2013-05-25 16:54:00,62.8,43.9,30.27,NW,317,0.0,2.0,50,0.00,,,0.00,0.00,VWS V14.01,2013-05-25 20:54:00,
2013-05-25 16:57:00,62.9,43.5,30.27,NW,317,0.0,3.0,49,0.00,,,0.00,0.00,VWS V14.01,2013-05-25 20:57:00,
2013-05-25 16:59:00,62.8,42.8,30.26,NW,317,2.0,3.0,48,0.00,,,0.00,0.00,VWS V14.01,2013-05-25 20:59:00,
2013-05-25 17:00:00,62.8,42.8,30.26,NW,317,1.0,3.0,48,0.00,,,0.00,0.00,VWS V14.01,2013-05-25 21:00:00,
2013-05-25 17:02:00,62.9,42.9,30.26,NW,317,1.0,1.0,48,0.00,,,0.00,0.00,VWS V14.01,2013-05-25 21:02:00,
2013-05-25 17:03:00,62.9,42.9,30.26,NW,317,0.0,0.0,48,0.00,,,0.00,0.00,VWS V14.01,2013-05-25 21:03:00,
2013-05-25 17:04:00,63.0,43.0,30.26,NW,317,1.0,3.0,48,0.00,,,0.00,0.00,VWS V14.01,2013-05-25 21:04:00,
2013-05-25 17:05:00,63.0,42.5,30.26,NW,317,0.0,3.0,47,0.00,,,0.00,0.00,VWS V14.01,2013-05-25 21:05:00,
2013-05-25 17:07:00,63.1,42.6,30.26,NW,317,3.0,3.0,47,0.00,,,0.00,0.00,VWS V14.01,2013-05-25 21:07:00,
2013-05-25 17:08:00,63.1,42.0,30.26,NW,304,4.0,4.0,46,0.00,,,0.00,0.00,VWS V14.01,2013-05-25 21:08:00,
2013-05-25 17:09:00,63.1,41.4,30.26,WNW,302,0.0,0.0,45,0.00,,,0.00,0.00,VWS V14.01,2013-05-25 21:09:00,
2013-05-25 17:10:00,63.1,40.9,30.26,WNW,302,0.0,0.0,44,0.00,,,0.00,0.00,VWS V14.01,2013-05-25 21:10:00,
2013-05-25 17:12:00,63.1,41.4,30.26,WNW,302,0.0,0.0,45,0.00,,,0.00,0.00,VWS V14.01,2013-05-25 21:12:00,
2013-05-25 17:13:00,63.1,41.4,30.25,WNW,302,0.0,1.0,45,0.00,,,0.00,0.00,VWS V14.01,2013-05-25 21:13:00,
2013-05-25 17:14:00,63.2,41.5,30.25,WNW,302,0.0,0.0,45,0.00,,,0.00,0.00,VWS V14.01,2013-05-25 21:14:00,
2013-05-25 17:15:00,63.2,42.7,30.25,WNW,302,0.0,0.0,47,0.00,,,0.00,0.00,VWS V14.01,2013-05-25 21:15:00,
2013-05-25 17:18:00,63.6,42.5,30.25,WNW,303,1.0,1.0,46,0.00,,,0.00,0.00,VWS V14.01,2013-05-25 21:18:00,
2013-05-25 17:19:00,63.8,42.6,30.25,NW,305,0.0,4.0,46,0.00,,,0.00,0.00,VWS V14.01,2013-05-25 21:19:00,
2013-05-25 17:20:00,63.8,42.6,30.26,NW,305,0.0,0.0,46,0.00,,,0.00,0.00,VWS V14.01,2013-05-25 21:20:00,
2013-05-25 17:23:00,63.9,42.2,30.25,NW,305,0.0,1.0,45,0.00,,,0.00,0.00,VWS V14.01,2013-05-25 21:23:00,
2013-05-25 17:24:00,64.0,42.3,30.25,NW,305,0.0,0.0,45,0.00,,,0.00,0.00,VWS V14.01,2013-05-25 21:24:00,
2013-05-25 17:25:00,64.1,42.3,30.25,NW,305,1.0,1.0,45,0.00,,,0.00,0.00,VWS V14.01,2013-05-25 21:25:00,
2013-05-25 17:28:00,64.3,42.5,30.25,NW,305,0.0,0.0,45,0.00,,,0.00,0.00,VWS V14.01,2013-05-25 21:28:00,
2013-05-25 17:29:00,64.3,41.9,30.25,NW,305,0.0,1.0,44,0.00,,,0.00,0.00,VWS V14.01,2013-05-25 21:29:00,
2013-05-25 17:30:00,64.3,41.9,30.25,NW,305,0.0,1.0,44,0.00,,,0.00,0.00,VWS V14.01,2013-05-25 21:30:00,
2013-05-25 17:33:00,64.4,42.6,30.25,NW,305,0.0,1.0,45,0.00,,,0.00,0.00,VWS V14.01,2013-05-25 21:33:00,
2013-05-25 17:34:00,64.3,41.9,30.25,NW,305,0.0,0.0,44,0.00,,,0.00,0.00,VWS V14.01,2013-05-25 21:34:00,
2013-05-25 17:35:00,64.3,41.9,30.25,NW,305,0.0,0.0,44,0.00,,,0.00,0.00,VWS V14.01,2013-05-25 21:35:00,
2013-05-25 17:38:00,64.3,41.9,30.25,NW,305,0.0,2.0,44,0.00,,,0.00,0.00,VWS V14.01,2013-05-25 21:38:00,
2013-05-25 17:39:00,64.2,41.8,30.25,NW,305,0.0,0.0,44,0.00,,,0.00,0.00,VWS V14.01,2013-05-25 21:39:00,
2013-05-25 17:40:00,64.2,41.8,30.25,NW,305,0.0,0.0,44,0.00,,,0.00,0.00,VWS V14.01,2013-05-25 21:40:00,
2013-05-25 17:43:00,64.1,41.8,30.25,NW,305,0.0,0.0,44,0.00,,,0.00,0.00,VWS V14.01,2013-05-25 21:43:00,
2013-05-25 17:44:00,64.2,41.8,30.25,NW,305,2.0,2.0,44,0.00,,,0.00,0.00,VWS V14.01,2013-05-25 21:44:00,
2013-05-25 17:45:00,64.2,41.8,30.25,NW,305,0.0,0.0,44,0.00,,,0.00,0.00,VWS V14.01,2013-05-25 21:45:00,
2013-05-25 17:48:00,64.0,41.1,30.25,NW,305,0.0,1.0,43,0.00,,,0.00,0.00,VWS V14.01,2013-05-25 21:48:00,
2013-05-25 17:50:00,63.9,41.0,30.25,NW,305,0.0,2.0,43,0.00,,,0.00,0.00,VWS V14.01,2013-05-25 21:50:00,
2013-05-25 17:51:00,63.8,41.5,30.25,NW,305,0.0,1.0,44,0.00,,,0.00,0.00,VWS V14.01,2013-05-25 21:51:00,
2013-05-25 17:53:00,63.7,41.4,30.25,NW,305,0.0,0.0,44,0.00,,,0.00,0.00,VWS V14.01,2013-05-25 21:53:00,
2013-05-25 17:54:00,63.7,41.4,30.25,NW,305,0.0,0.0,44,0.00,,,0.00,0.00,VWS V14.01,2013-05-25 21:54:00,
2013-05-25 17:55:00,63.7,42.0,30.25,NW,305,0.0,0.0,45,0.00,,,0.00,0.00,VWS V14.01,2013-05-25 21:55:00,
2013-05-25 17:56:00,63.7,42.0,30.25,NW,305,0.0,0.0,45,0.00,,,0.00,0.00,VWS V14.01,2013-05-25 21:56:00,
2013-05-25 17:58:00,63.7,40.2,30.25,NW,305,1.0,1.0,42,0.00,,,0.00,0.00,VWS V14.01,2013-05-25 21:58:00,
2013-05-25 17:59:00,63.6,40.1,30.25,NW,305,1.0,2.0,42,0.00,,,0.00,0.00,VWS V14.01,2013-05-25 21:59:00,
2013-05-25 18:00:00,63.6,40.7,30.25,NW,304,3.0,3.0,43,0.00,,,0.00,0.00,VWS V14.01,2013-05-25 22:00:00,
2013-05-25 18:01:00,63.6,40.7,30.25,NW,304,2.0,3.0,43,0.00,,,0.00,0.00,VWS V14.01,2013-05-25 22:01:00,
2013-05-25 18:03:00,63.5,39.4,30.25,NW,304,1.0,1.0,41,0.00,,,0.00,0.00,VWS V14.01,2013-05-25 22:03:00,
2013-05-25 18:04:00,63.4,39.9,30.25,NW,304,2.0,3.0,42,0.00,,,0.00,0.00,VWS V14.01,2013-05-25 22:04:00,
2013-05-25 18:05:00,63.4,39.3,30.25,NW,304,0.0,2.0,41,0.00,,,0.00,0.00,VWS V14.01,2013-05-25 22:05:00,
2013-05-25 18:06:00,63.4,39.9,30.25,NW,304,0.0,0.0,42,0.00,,,0.00,0.00,VWS V14.01,2013-05-25 22:06:00,
2013-05-25 18:08:00,63.2,39.1,30.24,NW,304,0.0,1.0,41,0.00,,,0.00,0.00,VWS V14.01,2013-05-25 22:08:00,
2013-05-25 18:09:00,63.2,39.1,30.24,NW,304,0.0,1.0,41,0.00,,,0.00,0.00,VWS V14.01,2013-05-25 22:09:00,
2013-05-25 18:10:00,63.2,39.8,30.24,NW,304,0.0,0.0,42,0.00,,,0.00,0.00,VWS V14.01,2013-05-25 22:10:00,
2013-05-25 18:11:00,63.1,40.3,30.24,NW,304,0.0,0.0,43,0.00,,,0.00,0.00,VWS V14.01,2013-05-25 22:11:00,
2013-05-25 18:13:00,63.1,41.4,30.24,NW,304,1.0,1.0,45,0.00,,,0.00,0.00,VWS V14.01,2013-05-25 22:13:00,
2013-05-25 18:14:00,63.1,40.9,30.24,NW,304,0.0,1.0,44,0.00,,,0.00,0.00,VWS V14.01,2013-05-25 22:14:00,
2013-05-25 18:15:00,63.1,40.9,30.24,NW,304,1.0,1.0,44,0.00,,,0.00,0.00,VWS V14.01,2013-05-25 22:15:00,
2013-05-25 18:16:00,63.1,40.3,30.24,NW,304,0.0,0.0,43,0.00,,,0.00,0.00,VWS V14.01,2013-05-25 22:16:00,
2013-05-25 18:18:00,63.1,39.7,30.24,NW,304,0.0,1.0,42,0.00,,,0.00,0.00,VWS V14.01,2013-05-25 22:18:00,
2013-05-25 18:19:00,63.1,39.7,30.24,NW,304,0.0,0.0,42,0.00,,,0.00,0.00,VWS V14.01,2013-05-25 22:19:00,
2013-05-25 18:20:00,63.1,39.7,30.24,NW,304,1.0,1.0,42,0.00,,,0.00,0.00,VWS V14.01,2013-05-25 22:20:00,
2013-05-25 18:21:00,63.1,39.7,30.24,NW,304,0.0,0.0,42,0.00,,,0.00,0.00,VWS V14.01,2013-05-25 22:21:00,
2013-05-25 18:23:00,63.1,40.3,30.23,NW,304,0.0,1.0,43,0.00,,,0.00,0.00,VWS V14.01,2013-05-25 22:23:00,
2013-05-25 18:24:00,63.1,40.3,30.23,NW,304,0.0,0.0,43,0.00,,,0.00,0.00,VWS V14.01,2013-05-25 22:24:00,
2013-05-25 18:25:00,63.1,40.3,30.23,NW,304,0.0,0.0,43,0.00,,,0.00,0.00,VWS V14.01,2013-05-25 22:25:00,
2013-05-25 18:26:00,63.1,40.3,30.23,NW,304,0.0,0.0,43,0.00,,,0.00,0.00,VWS V14.01,2013-05-25 22:26:00,
2013-05-25 18:28:00,63.1,40.3,30.23,NW,304,0.0,0.0,43,0.00,,,0.00,0.00,VWS V14.01,2013-05-25 22:28:00,
2013-05-25 18:29:00,63.0,40.2,30.23,NW,304,0.0,1.0,43,0.00,,,0.00,0.00,VWS V14.01,2013-05-25 22:29:00,
2013-05-25 18:30:00,63.0,40.8,30.23,NW,304,0.0,0.0,44,0.00,,,0.00,0.00,VWS V14.01,2013-05-25 22:30:00,
2013-05-25 18:31:00,63.0,40.8,30.23,NW,304,0.0,0.0,44,0.00,,,0.00,0.00,VWS V14.01,2013-05-25 22:31:00,
2013-05-25 18:33:00,63.1,41.4,30.22,NW,304,0.0,0.0,45,0.00,,,0.00,0.00,VWS V14.01,2013-05-25 22:33:00,
2013-05-25 18:34:00,63.1,40.9,30.22,NW,304,0.0,0.0,44,0.00,,,0.00,0.00,VWS V14.01,2013-05-25 22:34:00,
2013-05-25 18:35:00,63.1,40.9,30.22,NW,304,0.0,0.0,44,0.00,,,0.00,0.00,VWS V14.01,2013-05-25 22:35:00,
2013-05-25 18:36:00,63.1,40.9,30.22,NW,304,0.0,1.0,44,0.00,,,0.00,0.00,VWS V14.01,2013-05-25 22:36:00,
2013-05-25 18:38:00,63.1,40.9,30.22,NW,304,0.0,0.0,44,0.00,,,0.00,0.00,VWS V14.01,2013-05-25 22:38:00,
2013-05-25 18:39:00,63.1,41.4,30.22,NW,304,0.0,0.0,45,0.00,,,0.00,0.00,VWS V14.01,2013-05-25 22:39:00,
2013-05-25 18:40:00,63.1,41.4,30.22,NW,304,0.0,0.0,45,0.00,,,0.00,0.00,VWS V14.01,2013-05-25 22:40:00,
2013-05-25 18:41:00,63.2,41.0,30.22,NW,304,0.0,0.0,44,0.00,,,0.00,0.00,VWS V14.01,2013-05-25 22:41:00,
2013-05-25 18:43:00,63.2,41.0,30.22,NW,304,0.0,0.0,44,0.00,,,0.00,0.00,VWS V14.01,2013-05-25 22:43:00,
2013-05-25 18:44:00,63.2,40.3,30.22,NW,304,0.0,0.0,43,0.00,,,0.00,0.00,VWS V14.01,2013-05-25 22:44:00,
2013-05-25 18:45:00,63.2,41.0,30.21,NW,304,0.0,0.0,44,0.00,,,0.00,0.00,VWS V14.01,2013-05-25 22:45:00,
2013-05-25 18:46:00,63.2,41.0,30.21,NW,304,0.0,0.0,44,0.00,,,0.00,0.00,VWS V14.01,2013-05-25 22:46:00,
2013-05-25 18:48:00,63.2,41.0,30.21,NW,304,0.0,0.0,44,0.00,,,0.00,0.00,VWS V14.01,2013-05-25 22:48:00,
2013-05-25 18:49:00,63.1,40.3,30.22,NW,304,0.0,0.0,43,0.00,,,0.00,0.00,VWS V14.01,2013-05-25 22:49:00,
2013-05-25 18:50:00,63.1,39.7,30.22,NW,304,0.0,1.0,42,0.00,,,0.00,0.00,VWS V14.01,2013-05-25 22:50:00,
2013-05-25 18:51:00,63.1,39.7,30.21,NW,304,0.0,0.0,42,0.00,,,0.00,0.00,VWS V14.01,2013-05-25 22:51:00,
2013-05-25 18:52:00,63.1,39.7,30.21,NW,304,0.0,1.0,42,0.00,,,0.00,0.00,VWS V14.01,2013-05-25 22:52:00,
2013-05-25 18:53:00,63.0,39.6,30.21,NW,304,0.0,0.0,42,0.00,,,0.00,0.00,VWS V14.01,2013-05-25 22:53:00,
2013-05-25 18:54:00,63.0,39.6,30.21,NW,304,0.0,0.0,42,0.00,,,0.00,0.00,VWS V14.01,2013-05-25 22:54:00,
2013-05-25 18:55:00,62.9,39.5,30.21,NW,304,0.0,0.0,42,0.00,,,0.00,0.00,VWS V14.01,2013-05-25 22:55:00,
2013-05-25 18:56:00,62.9,40.1,30.21,NW,304,0.0,0.0,43,0.00,,,0.00,0.00,VWS V14.01,2013-05-25 22:56:00,
2013-05-25 18:57:00,62.9,40.1,30.21,NW,304,0.0,0.0,43,0.00,,,0.00,0.00,VWS V14.01,2013-05-25 22:57:00,
2013-05-25 18:58:00,62.9,40.1,30.21,NW,304,0.0,0.0,43,0.00,,,0.00,0.00,VWS V14.01,2013-05-25 22:58:00,
2013-05-25 18:59:00,62.9,40.1,30.21,NW,304,0.0,0.0,43,0.00,,,0.00,0.00,VWS V14.01,2013-05-25 22:59:00,
2013-05-25 19:00:00,62.9,40.1,30.21,NW,304,0.0,0.0,43,0.00,,,0.00,0.00,VWS V14.01,2013-05-25 23:00:00,
2013-05-25 19:01:00,62.9,40.7,30.21,NW,304,0.0,0.0,44,0.00,,,0.00,0.00,VWS V14.01,2013-05-25 23:01:00,
2013-05-25 19:02:00,62.9,40.7,30.21,NW,304,0.0,0.0,44,0.00,,,0.00,0.00,VWS V14.01,2013-05-25 23:02:00,
2013-05-25 19:03:00,62.9,40.1,30.21,NW,304,0.0,0.0,43,0.00,,,0.00,0.00,VWS V14.01,2013-05-25 23:03:00,
2013-05-25 19:05:00,62.9,40.7,30.21,NW,304,0.0,0.0,44,0.00,,,0.00,0.00,VWS V14.01,2013-05-25 23:05:00,
2013-05-25 19:06:00,62.9,40.7,30.21,NW,304,0.0,1.0,44,0.00,,,0.00,0.00,VWS V14.01,2013-05-25 23:06:00,
2013-05-25 19:07:00,62.9,41.3,30.21,NW,304,0.0,0.0,45,0.00,,,0.00,0.00,VWS V14.01,2013-05-25 23:07:00,
2013-05-25 19:08:00,62.9,40.7,30.21,NW,304,0.0,0.0,44,0.00,,,0.00,0.00,VWS V14.01,2013-05-25 23:08:00,
2013-05-25 19:10:00,62.9,40.7,30.21,NW,304,0.0,0.0,44,0.00,,,0.00,0.00,VWS V14.01,2013-05-25 23:10:00,
2013-05-25 19:11:00,62.9,40.7,30.21,NW,304,0.0,0.0,44,0.00,,,0.00,0.00,VWS V14.01,2013-05-25 23:11:00,
2013-05-25 19:12:00,62.9,40.7,30.21,NW,304,0.0,0.0,44,0.00,,,0.00,0.00,VWS V14.01,2013-05-25 23:12:00,
2013-05-25 19:13:00,62.9,40.7,30.21,NW,304,2.0,2.0,44,0.00,,,0.00,0.00,VWS V14.01,2013-05-25 23:13:00,
2013-05-25 19:15:00,62.8,40.6,30.22,NW,304,0.0,0.0,44,0.00,,,0.00,0.00,VWS V14.01,2013-05-25 23:15:00,
2013-05-25 19:16:00,62.8,40.6,30.22,NW,304,0.0,0.0,44,0.00,,,0.00,0.00,VWS V14.01,2013-05-25 23:16:00,
2013-05-25 19:17:00,62.8,41.2,30.22,NW,304,0.0,0.0,45,0.00,,,0.00,0.00,VWS V14.01,2013-05-25 23:17:00,
2013-05-25 19:18:00,62.8,41.2,30.22,NW,304,0.0,0.0,45,0.00,,,0.00,0.00,VWS V14.01,2013-05-25 23:18:00,
2013-05-25 19:20:00,62.8,40.6,30.22,WNW,298,0.0,0.0,44,0.00,,,0.00,0.00,VWS V14.01,2013-05-25 23:20:00,
2013-05-25 19:21:00,62.8,40.6,30.22,WNW,298,0.0,1.0,44,0.00,,,0.00,0.00,VWS V14.01,2013-05-25 23:21:00,
2013-05-25 19:22:00,62.7,40.5,30.23,WNW,300,0.0,1.0,44,0.00,,,0.00,0.00,VWS V14.01,2013-05-25 23:22:00,
2013-05-25 19:23:00,62.7,39.9,30.23,WNW,300,0.0,0.0,43,0.00,,,0.00,0.00,VWS V14.01,2013-05-25 23:23:00,
2013-05-25 19:25:00,62.7,39.9,30.23,WNW,300,0.0,0.0,43,0.00,,,0.00,0.00,VWS V14.01,2013-05-25 23:25:00,
2013-05-25 19:26:00,62.7,39.9,30.23,WNW,300,0.0,0.0,43,0.00,,,0.00,0.00,VWS V14.01,2013-05-25 23:26:00,
2013-05-25 19:27:00,62.6,39.8,30.23,WNW,300,0.0,0.0,43,0.00,,,0.00,0.00,VWS V14.01,2013-05-25 23:27:00,
2013-05-25 19:28:00,62.7,40.5,30.23,WNW,300,0.0,0.0,44,0.00,,,0.00,0.00,VWS V14.01,2013-05-25 23:28:00,
2013-05-25 19:30:00,62.7,41.1,30.24,WNW,300,0.0,0.0,45,0.00,,,0.00,0.00,VWS V14.01,2013-05-25 23:30:00,
2013-05-25 19:31:00,62.7,41.1,30.24,WNW,300,0.0,0.0,45,0.00,,,0.00,0.00,VWS V14.01,2013-05-25 23:31:00,
2013-05-25 19:32:00,62.6,40.4,30.24,WNW,300,0.0,0.0,44,0.00,,,0.00,0.00,VWS V14.01,2013-05-25 23:32:00,
2013-05-25 19:33:00,62.6,41.0,30.24,WNW,300,0.0,0.0,45,0.00,,,0.00,0.00,VWS V14.01,2013-05-25 23:33:00,
2013-05-25 19:35:00,62.6,41.5,30.24,WNW,300,0.0,0.0,46,0.00,,,0.00,0.00,VWS V14.01,2013-05-25 23:35:00,
2013-05-25 19:36:00,62.6,42.1,30.24,WNW,300,0.0,0.0,47,0.00,,,0.00,0.00,VWS V14.01,2013-05-25 23:36:00,
2013-05-25 19:38:00,62.6,42.1,30.24,NW,318,0.0,1.0,47,0.00,,,0.00,0.00,VWS V14.01,2013-05-25 23:38:00,
2013-05-25 19:39:00,62.6,42.1,30.24,NW,318,0.0,0.0,47,0.00,,,0.00,0.00,VWS V14.01,2013-05-25 23:39:00,
2013-05-25 19:40:00,62.6,42.1,30.24,NW,318,0.0,0.0,47,0.00,,,0.00,0.00,VWS V14.01,2013-05-25 23:40:00,
2013-05-25 19:41:00,62.6,42.1,30.24,NW,318,0.0,1.0,47,0.00,,,0.00,0.00,VWS V14.01,2013-05-25 23:41:00,
2013-05-25 19:43:00,62.5,40.9,30.24,NW,318,0.0,0.0,45,0.00,,,0.00,0.00,VWS V14.01,2013-05-25 23:43:00,
2013-05-25 19:44:00,62.5,40.9,30.24,NW,318,0.0,0.0,45,0.00,,,0.00,0.00,VWS V14.01,2013-05-25 23:44:00,
2013-05-25 19:45:00,62.5,41.5,30.24,NW,318,0.0,1.0,46,0.00,,,0.00,0.00,VWS V14.01,2013-05-25 23:45:00,
2013-05-25 19:46:00,62.5,41.5,30.24,NW,318,0.0,0.0,46,0.00,,,0.00,0.00,VWS V14.01,2013-05-25 23:46:00,
2013-05-25 19:48:00,62.5,41.5,30.25,NW,318,0.0,0.0,46,0.00,,,0.00,0.00,VWS V14.01,2013-05-25 23:48:00,
2013-05-25 19:49:00,62.4,41.4,30.24,NW,318,0.0,1.0,46,0.00,,,0.00,0.00,VWS V14.01,2013-05-25 23:49:00,
2013-05-25 19:50:00,62.4,41.9,30.24,NW,318,0.0,0.0,47,0.00,,,0.00,0.00,VWS V14.01,2013-05-25 23:50:00,
2013-05-25 19:51:00,62.4,41.4,30.24,NW,318,1.0,1.0,46,0.00,,,0.00,0.00,VWS V14.01,2013-05-25 23:51:00,
2013-05-25 19:52:00,62.4,41.4,30.24,NW,318,0.0,1.0,46,0.00,,,0.00,0.00,VWS V14.01,2013-05-25 23:52:00,
2013-05-25 19:53:00,62.4,41.4,30.25,NW,318,0.0,0.0,46,0.00,,,0.00,0.00,VWS V14.01,2013-05-25 23:53:00,
2013-05-25 19:54:00,62.3,41.3,30.24,NW,318,0.0,0.0,46,0.00,,,0.00,0.00,VWS V14.01,2013-05-25 23:54:00,
2013-05-25 19:56:00,62.3,41.3,30.24,NW,318,0.0,0.0,46,0.00,,,0.00,0.00,VWS V14.01,2013-05-25 23:56:00,
2013-05-25 19:57:00,62.3,41.3,30.25,NW,318,0.0,1.0,46,0.00,,,0.00,0.00,VWS V14.01,2013-05-25 23:57:00,
2013-05-25 19:58:00,62.3,41.3,30.25,NW,318,0.0,0.0,46,0.00,,,0.00,0.00,VWS V14.01,2013-05-25 23:58:00,
2013-05-25 19:59:00,62.2,41.2,30.25,NW,318,0.0,0.0,46,0.00,,,0.00,0.00,VWS V14.01,2013-05-25 23:59:00,
2013-05-25 20:00:00,62.2,41.2,30.25,NW,318,0.0,0.0,46,0.00,,,0.00,0.00,VWS V14.01,2013-05-26 00:00:00,
2013-05-25 20:01:00,62.2,41.2,30.25,NW,318,0.0,0.0,46,0.00,,,0.00,0.00,VWS V14.01,2013-05-26 00:01:00,
2013-05-25 20:02:00,62.2,41.2,30.25,NW,318,0.0,0.0,46,0.00,,,0.00,0.00,VWS V14.01,2013-05-26 00:02:00,
2013-05-25 20:03:00,62.2,41.7,30.25,NW,318,0.0,0.0,47,0.00,,,0.00,0.00,VWS V14.01,2013-05-26 00:03:00,
2013-05-25 20:04:00,62.2,41.2,30.24,NW,318,0.0,1.0,46,0.00,,,0.00,0.00,VWS V14.01,2013-05-26 00:04:00,
2013-05-25 20:05:00,62.1,41.1,30.24,NW,318,0.0,0.0,46,0.00,,,0.00,0.00,VWS V14.01,2013-05-26 00:05:00,
2013-05-25 20:06:00,62.1,41.7,30.24,NW,318,0.0,0.0,47,0.00,,,0.00,0.00,VWS V14.01,2013-05-26 00:06:00,
2013-05-25 20:07:00,62.1,41.7,30.24,NW,318,0.0,0.0,47,0.00,,,0.00,0.00,VWS V14.01,2013-05-26 00:07:00,
2013-05-25 20:08:00,62.1,42.2,30.24,NW,318,0.0,0.0,48,0.00,,,0.00,0.00,VWS V14.01,2013-05-26 00:08:00,
2013-05-25 20:09:00,62.1,42.2,30.24,NW,318,0.0,0.0,48,0.00,,,0.00,0.00,VWS V14.01,2013-05-26 00:09:00,
2013-05-25 20:11:00,62.1,42.2,30.24,NW,318,0.0,0.0,48,0.00,,,0.00,0.00,VWS V14.01,2013-05-26 00:11:00,
2013-05-25 20:12:00,62.1,42.7,30.24,NW,318,0.0,0.0,49,0.00,,,0.00,0.00,VWS V14.01,2013-05-26 00:12:00,
2013-05-25 20:13:00,62.1,43.3,30.24,NW,318,1.0,1.0,50,0.00,,,0.00,0.00,VWS V14.01,2013-05-26 00:13:00,
2013-05-25 20:14:00,62.0,42.6,30.24,NW,318,0.0,0.0,49,0.00,,,0.00,0.00,VWS V14.01,2013-05-26 00:14:00,
2013-05-25 20:16:00,62.0,43.2,30.24,NW,318,0.0,0.0,50,0.00,,,0.00,0.00,VWS V14.01,2013-05-26 00:16:00,
2013-05-25 20:17:00,62.0,43.2,30.24,NW,318,0.0,0.0,50,0.00,,,0.00,0.00,VWS V14.01,2013-05-26 00:17:00,
2013-05-25 20:18:00,62.0,43.2,30.24,NW,318,0.0,1.0,50,0.00,,,0.00,0.00,VWS V14.01,2013-05-26 00:18:00,
2013-05-25 20:19:00,61.9,43.6,30.24,NW,318,2.0,3.0,51,0.00,,,0.00,0.00,VWS V14.01,2013-05-26 00:19:00,
2013-05-25 20:21:00,61.8,43.0,30.24,NW,318,0.0,0.0,50,0.00,,,0.00,0.00,VWS V14.01,2013-05-26 00:21:00,
2013-05-25 20:22:00,61.8,43.5,30.24,NW,318,0.0,0.0,51,0.00,,,0.00,0.00,VWS V14.01,2013-05-26 00:22:00,
2013-05-25 20:23:00,61.8,43.5,30.24,NW,318,0.0,0.0,51,0.00,,,0.00,0.00,VWS V14.01,2013-05-26 00:23:00,
2013-05-25 20:24:00,61.7,43.4,30.24,NW,318,1.0,1.0,51,0.00,,,0.00,0.00,VWS V14.01,2013-05-26 00:24:00,
2013-05-25 20:26:00,61.7,43.9,30.24,NW,318,0.0,0.0,52,0.00,,,0.00,0.00,VWS V14.01,2013-05-26 00:26:00,
2013-05-25 20:27:00,61.6,43.8,30.24,NW,318,0.0,1.0,52,0.00,,,0.00,0.00,VWS V14.01,2013-05-26 00:27:00,
2013-05-25 20:28:00,61.6,43.8,30.24,NW,318,0.0,0.0,52,0.00,,,0.00,0.00,VWS V14.01,2013-05-26 00:28:00,
2013-05-25 20:29:00,61.5,43.7,30.24,NW,318,0.0,0.0,52,0.00,,,0.00,0.00,VWS V14.01,2013-05-26 00:29:00,
2013-05-25 20:31:00,61.4,44.1,30.24,NW,318,0.0,0.0,53,0.00,,,0.00,0.00,VWS V14.01,2013-05-26 00:31:00,
2013-05-25 20:32:00,61.4,44.1,30.24,NW,318,0.0,1.0,53,0.00,,,0.00,0.00,VWS V14.01,2013-05-26 00:32:00,
2013-05-25 20:33:00,61.3,43.5,30.24,NW,318,0.0,0.0,52,0.00,,,0.00,0.00,VWS V14.01,2013-05-26 00:33:00,
2013-05-25 20:34:00,61.2,44.0,30.24,NW,318,0.0,0.0,53,0.00,,,0.00,0.00,VWS V14.01,2013-05-26 00:34:00,
2013-05-25 20:36:00,61.1,43.9,30.24,NW,318,0.0,0.0,53,0.00,,,0.00,0.00,VWS V14.01,2013-05-26 00:36:00,
2013-05-25 20:37:00,61.1,43.9,30.24,NW,318,0.0,0.0,53,0.00,,,0.00,0.00,VWS V14.01,2013-05-26 00:37:00,
2013-05-25 20:38:00,61.1,43.9,30.24,NW,318,0.0,1.0,53,0.00,,,0.00,0.00,VWS V14.01,2013-05-26 00:38:00,
2013-05-25 20:39:00,61.0,43.8,30.24,NW,318,0.0,1.0,53,0.00,,,0.00,0.00,VWS V14.01,2013-05-26 00:39:00,
2013-05-25 20:42:00,60.8,43.1,30.24,NW,318,0.0,1.0,52,0.00,,,0.00,0.00,VWS V14.01,2013-05-26 00:42:00,
2013-05-25 20:43:00,60.8,43.6,30.24,NW,318,0.0,1.0,53,0.00,,,0.00,0.00,VWS V14.01,2013-05-26 00:43:00,
2013-05-25 20:45:00,60.7,43.5,30.24,NW,318,0.0,1.0,53,0.00,,,0.00,0.00,VWS V14.01,2013-05-26 00:45:00,
2013-05-25 20:47:00,60.6,43.4,30.24,NW,318,1.0,1.0,53,0.00,,,0.00,0.00,VWS V14.01,2013-05-26 00:47:00,
2013-05-25 20:48:00,60.6,43.9,30.24,NW,318,0.0,0.0,54,0.00,,,0.00,0.00,VWS V14.01,2013-05-26 00:48:00,
2013-05-25 20:50:00,60.5,43.8,30.24,NW,318,0.0,0.0,54,0.00,,,0.00,0.00,VWS V14.01,2013-05-26 00:50:00,
2013-05-25 20:52:00,60.5,43.8,30.24,NW,318,0.0,0.0,54,0.00,,,0.00,0.00,VWS V14.01,2013-05-26 00:52:00,
2013-05-25 20:53:00,60.5,43.8,30.24,NW,318,0.0,0.0,54,0.00,,,0.00,0.00,VWS V14.01,2013-05-26 00:53:00,
2013-05-25 20:55:00,60.4,43.7,30.24,NW,318,0.0,0.0,54,0.00,,,0.00,0.00,VWS V14.01,2013-05-26 00:55:00,
2013-05-25 20:57:00,60.4,43.7,30.24,NW,318,0.0,0.0,54,0.00,,,0.00,0.00,VWS V14.01,2013-05-26 00:57:00,
2013-05-25 20:58:00,60.4,43.7,30.24,NW,318,0.0,0.0,54,0.00,,,0.00,0.00,VWS V14.01,2013-05-26 00:58:00,
2013-05-25 21:00:00,60.4,43.7,30.24,NW,318,0.0,0.0,54,0.00,,,0.00,0.00,VWS V14.01,2013-05-26 01:00:00,
2013-05-25 21:02:00,60.3,43.6,30.24,NW,318,0.0,0.0,54,0.00,,,0.00,0.00,VWS V14.01,2013-05-26 01:02:00,
2013-05-25 21:03:00,60.3,43.6,30.24,NNW,329,0.0,0.0,54,0.00,,,0.00,0.00,VWS V14.01,2013-05-26 01:03:00,
2013-05-25 21:05:00,60.3,43.6,30.24,NNW,330,0.0,0.0,54,0.00,,,0.00,0.00,VWS V14.01,2013-05-26 01:05:00,
2013-05-25 21:07:00,60.3,43.6,30.24,NNW,330,0.0,0.0,54,0.00,,,0.00,0.00,VWS V14.01,2013-05-26 01:07:00,
2013-05-25 21:08:00,60.2,43.5,30.24,NNW,330,0.0,1.0,54,0.00,,,0.00,0.00,VWS V14.01,2013-05-26 01:08:00,
2013-05-25 21:10:00,60.2,43.5,30.24,NNW,330,0.0,0.0,54,0.00,,,0.00,0.00,VWS V14.01,2013-05-26 01:10:00,
2013-05-25 21:12:00,60.2,43.5,30.24,NNW,330,0.0,0.0,54,0.00,,,0.00,0.00,VWS V14.01,2013-05-26 01:12:00,
2013-05-25 21:13:00,60.2,43.5,30.24,NNW,330,0.0,0.0,54,0.00,,,0.00,0.00,VWS V14.01,2013-05-26 01:13:00,
2013-05-25 21:15:00,60.2,43.5,30.24,NNW,330,0.0,0.0,54,0.00,,,0.00,0.00,VWS V14.01,2013-05-26 01:15:00,
2013-05-25 21:17:00,60.1,43.9,30.24,NNW,332,0.0,0.0,55,0.00,,,0.00,0.00,VWS V14.01,2013-05-26 01:17:00,
2013-05-25 21:18:00,60.1,43.9,30.24,NNW,332,0.0,0.0,55,0.00,,,0.00,0.00,VWS V14.01,2013-05-26 01:18:00,
2013-05-25 21:20:00,60.0,44.3,30.24,ESE,108,0.0,0.0,56,0.00,,,0.00,0.00,VWS V14.01,2013-05-26 01:20:00,
2013-05-25 21:22:00,60.0,44.3,30.24,ESE,108,0.0,1.0,56,0.00,,,0.00,0.00,VWS V14.01,2013-05-26 01:22:00,
2013-05-25 21:23:00,59.9,44.2,30.24,ESE,108,0.0,0.0,56,0.00,,,0.00,0.00,VWS V14.01,2013-05-26 01:23:00,
2013-05-25 21:25:00,59.9,44.2,30.24,ESE,108,0.0,0.0,56,0.00,,,0.00,0.00,VWS V14.01,2013-05-26 01:25:00,
2013-05-25 21:27:00,59.8,44.1,30.24,ESE,108,0.0,0.0,56,0.00,,,0.00,0.00,VWS V14.01,2013-05-26 01:27:00,
2013-05-25 21:28:00,59.8,44.1,30.24,ESE,108,0.0,1.0,56,0.00,,,0.00,0.00,VWS V14.01,2013-05-26 01:28:00,
2013-05-25 21:30:00,59.8,44.1,30.24,ESE,108,0.0,0.0,56,0.00,,,0.00,0.00,VWS V14.01,2013-05-26 01:30:00,
2013-05-25 21:32:00,59.7,44.0,30.24,ESE,108,0.0,0.0,56,0.00,,,0.00,0.00,VWS V14.01,2013-05-26 01:32:00,
2013-05-25 21:33:00,59.7,44.0,30.24,ESE,108,0.0,0.0,56,0.00,,,0.00,0.00,VWS V14.01,2013-05-26 01:33:00,
2013-05-25 21:35:00,59.7,44.0,30.23,ESE,108,0.0,0.0,56,0.00,,,0.00,0.00,VWS V14.01,2013-05-26 01:35:00,
2013-05-25 21:37:00,59.6,44.4,30.23,ESE,108,0.0,0.0,57,0.00,,,0.00,0.00,VWS V14.01,2013-05-26 01:37:00,
2013-05-25 21:38:00,59.6,43.9,30.23,ESE,108,0.0,0.0,56,0.00,,,0.00,0.00,VWS V14.01,2013-05-26 01:38:00,
2013-05-25 21:40:00,59.6,44.4,30.24,ESE,108,0.0,0.0,57,0.00,,,0.00,0.00,VWS V14.01,2013-05-26 01:40:00,
2013-05-25 21:42:00,59.5,44.7,30.24,ESE,108,0.0,0.0,58,0.00,,,0.00,0.00,VWS V14.01,2013-05-26 01:42:00,
2013-05-25 21:43:00,59.5,44.7,30.24,ESE,108,0.0,0.0,58,0.00,,,0.00,0.00,VWS V14.01,2013-05-26 01:43:00,
2013-05-25 21:45:00,59.4,44.6,30.24,ESE,108,0.0,1.0,58,0.00,,,0.00,0.00,VWS V14.01,2013-05-26 01:45:00,
2013-05-25 21:47:00,59.3,44.1,30.24,ESE,107,0.0,0.0,57,0.00,,,0.00,0.00,VWS V14.01,2013-05-26 01:47:00,
2013-05-25 21:48:00,59.3,44.1,30.24,ESE,107,0.0,0.0,57,0.00,,,0.00,0.00,VWS V14.01,2013-05-26 01:48:00,
2013-05-25 21:50:00,59.2,44.5,30.24,ESE,107,0.0,1.0,58,0.00,,,0.00,0.00,VWS V14.01,2013-05-26 01:50:00,
2013-05-25 21:53:00,59.1,43.4,30.24,North,5,0.0,1.0,56,0.00,,,0.00,0.00,VWS V14.01,2013-05-26 01:53:00,
2013-05-25 21:55:00,59.1,43.9,30.24,North,5,0.0,0.0,57,0.00,,,0.00,0.00,VWS V14.01,2013-05-26 01:55:00,
2013-05-25 21:58:00,59.0,43.3,30.24,North,5,0.0,1.0,56,0.00,,,0.00,0.00,VWS V14.01,2013-05-26 01:58:00,
2013-05-25 22:00:00,59.0,43.8,30.24,North,5,0.0,1.0,57,0.00,,,0.00,0.00,VWS V14.01,2013-05-26 02:00:00,
2013-05-25 22:03:00,58.9,43.2,30.25,North,5,0.0,0.0,56,0.00,,,0.00,0.00,VWS V14.01,2013-05-26 02:03:00,
2013-05-25 22:04:00,58.9,43.2,30.25,North,5,0.0,0.0,56,0.00,,,0.00,0.00,VWS V14.01,2013-05-26 02:04:00,
2013-05-25 22:05:00,58.9,42.8,30.25,North,5,2.0,2.0,55,0.00,,,0.00,0.00,VWS V14.01,2013-05-26 02:05:00,
2013-05-25 22:08:00,58.9,42.3,30.25,North,5,0.0,0.0,54,0.00,,,0.00,0.00,VWS V14.01,2013-05-26 02:08:00,
2013-05-25 22:09:00,58.9,42.3,30.25,North,5,0.0,0.0,54,0.00,,,0.00,0.00,VWS V14.01,2013-05-26 02:09:00,
2013-05-25 22:10:00,58.9,41.8,30.25,North,5,0.0,1.0,53,0.00,,,0.00,0.00,VWS V14.01,2013-05-26 02:10:00,
2013-05-25 22:13:00,58.8,41.7,30.25,North,5,0.0,0.0,53,0.00,,,0.00,0.00,VWS V14.01,2013-05-26 02:13:00,
2013-05-25 22:14:00,58.8,41.7,30.25,North,5,0.0,1.0,53,0.00,,,0.00,0.00,VWS V14.01,2013-05-26 02:14:00,
2013-05-25 22:15:00,58.8,40.7,30.25,North,5,0.0,0.0,51,0.00,,,0.00,0.00,VWS V14.01,2013-05-26 02:15:00,
2013-05-25 22:18:00,58.8,40.7,30.25,North,5,0.0,0.0,51,0.00,,,0.00,0.00,VWS V14.01,2013-05-26 02:18:00,
2013-05-25 22:19:00,58.8,40.2,30.25,North,5,0.0,0.0,50,0.00,,,0.00,0.00,VWS V14.01,2013-05-26 02:19:00,
2013-05-25 22:20:00,58.7,40.6,30.25,North,5,0.0,0.0,51,0.00,,,0.00,0.00,VWS V14.01,2013-05-26 02:20:00,
2013-05-25 22:23:00,58.7,40.1,30.24,North,5,0.0,0.0,50,0.00,,,0.00,0.00,VWS V14.01,2013-05-26 02:23:00,
2013-05-25 22:24:00,58.7,40.1,30.24,North,5,0.0,0.0,50,0.00,,,0.00,0.00,VWS V14.01,2013-05-26 02:24:00,
2013-05-25 22:26:00,58.7,40.6,30.24,North,5,0.0,0.0,51,0.00,,,0.00,0.00,VWS V14.01,2013-05-26 02:26:00,
2013-05-25 22:28:00,58.7,40.1,30.25,North,5,0.0,0.0,50,0.00,,,0.00,0.00,VWS V14.01,2013-05-26 02:28:00,
2013-05-25 22:29:00,58.7,40.1,30.25,North,5,0.0,0.0,50,0.00,,,0.00,0.00,VWS V14.01,2013-05-26 02:29:00,
2013-05-25 22:31:00,58.6,40.0,30.25,North,5,0.0,0.0,50,0.00,,,0.00,0.00,VWS V14.01,2013-05-26 02:31:00,
2013-05-25 22:33:00,58.6,39.5,30.25,North,5,0.0,2.0,49,0.00,,,0.00,0.00,VWS V14.01,2013-05-26 02:33:00,
2013-05-25 22:34:00,58.6,39.5,30.25,North,5,0.0,2.0,49,0.00,,,0.00,0.00,VWS V14.01,2013-05-26 02:34:00,
2013-05-25 22:36:00,58.5,39.4,30.25,North,5,0.0,1.0,49,0.00,,,0.00,0.00,VWS V14.01,2013-05-26 02:36:00,
2013-05-25 22:38:00,58.4,39.3,30.26,North,5,0.0,2.0,49,0.00,,,0.00,0.00,VWS V14.01,2013-05-26 02:38:00,
2013-05-25 22:39:00,58.4,39.3,30.26,North,5,0.0,2.0,49,0.00,,,0.00,0.00,VWS V14.01,2013-05-26 02:39:00,
2013-05-25 22:41:00,58.4,39.3,30.26,North,5,1.0,1.0,49,0.00,,,0.00,0.00,VWS V14.01,2013-05-26 02:41:00,
2013-05-25 22:44:00,58.4,39.8,30.26,North,355,0.0,3.0,50,0.00,,,0.00,0.00,VWS V14.01,2013-05-26 02:44:00,
2013-05-25 22:46:00,58.3,39.8,30.26,North,351,3.0,4.0,50,0.00,,,0.00,0.00,VWS V14.01,2013-05-26 02:46:00,
2013-05-25 22:49:00,58.2,40.2,30.26,North,351,1.0,3.0,51,0.00,,,0.00,0.00,VWS V14.01,2013-05-26 02:49:00,
2013-05-25 22:51:00,58.2,40.2,30.26,North,351,0.0,1.0,51,0.00,,,0.00,0.00,VWS V14.01,2013-05-26 02:51:00,
2013-05-25 22:54:00,58.1,40.1,30.27,North,351,0.0,2.0,51,0.00,,,0.00,0.00,VWS V14.01,2013-05-26 02:54:00,
2013-05-25 22:56:00,58.0,40.0,30.27,North,349,0.0,1.0,51,0.00,,,0.00,0.00,VWS V14.01,2013-05-26 02:56:00,
2013-05-25 22:59:00,58.0,40.5,30.27,North,349,0.0,0.0,52,0.00,,,0.00,0.00,VWS V14.01,2013-05-26 02:59:00,
2013-05-25 23:01:00,57.9,40.4,30.27,North,349,1.0,2.0,52,0.00,,,0.00,0.00,VWS V14.01,2013-05-26 03:01:00,
2013-05-25 23:04:00,57.9,40.9,30.27,North,360,0.0,1.0,53,0.00,,,0.00,0.00,VWS V14.01,2013-05-26 03:04:00,
2013-05-25 23:06:00,57.9,41.4,30.27,North,360,0.0,2.0,54,0.00,,,0.00,0.00,VWS V14.01,2013-05-26 03:06:00,
2013-05-25 23:09:00,57.8,41.3,30.27,North,355,0.0,0.0,54,0.00,,,0.00,0.00,VWS V14.01,2013-05-26 03:09:00,
2013-05-25 23:11:00,57.7,41.2,30.27,North,355,0.0,0.0,54,0.00,,,0.00,0.00,VWS V14.01,2013-05-26 03:11:00,
2013-05-25 23:14:00,57.7,41.2,30.27,North,355,0.0,1.0,54,0.00,,,0.00,0.00,VWS V14.01,2013-05-26 03:14:00,
2013-05-25 23:16:00,57.6,40.6,30.27,North,360,2.0,9.0,53,0.00,,,0.00,0.00,VWS V14.01,2013-05-26 03:16:00,
2013-05-25 23:19:00,57.6,40.1,30.26,North,355,0.0,0.0,52,0.00,,,0.00,0.00,VWS V14.01,2013-05-26 03:19:00,
2013-05-25 23:21:00,57.6,40.1,30.26,North,355,0.0,2.0,52,0.00,,,0.00,0.00,VWS V14.01,2013-05-26 03:21:00,
2013-05-25 23:24:00,57.5,40.0,30.26,North,355,0.0,0.0,52,0.00,,,0.00,0.00,VWS V14.01,2013-05-26 03:24:00,
2013-05-25 23:27:00,57.4,39.9,30.26,North,355,0.0,1.0,52,0.00,,,0.00,0.00,VWS V14.01,2013-05-26 03:27:00,
2013-05-25 23:29:00,57.4,39.9,30.26,North,355,0.0,1.0,52,0.00,,,0.00,0.00,VWS V14.01,2013-05-26 03:29:00,
2013-05-25 23:32:00,57.3,39.3,30.26,North,355,1.0,1.0,51,0.00,,,0.00,0.00,VWS V14.01,2013-05-26 03:32:00,
2013-05-25 23:34:00,57.2,39.2,30.26,North,355,0.0,1.0,51,0.00,,,0.00,0.00,VWS V14.01,2013-05-26 03:34:00,
2013-05-25 23:37:00,57.2,39.2,30.26,North,355,0.0,1.0,51,0.00,,,0.00,0.00,VWS V14.01,2013-05-26 03:37:00,
2013-05-25 23:39:00,57.1,39.7,30.26,North,355,0.0,0.0,52,0.00,,,0.00,0.00,VWS V14.01,2013-05-26 03:39:00,
2013-05-25 23:40:00,57.1,39.7,30.26,North,355,1.0,1.0,52,0.00,,,0.00,0.00,VWS V14.01,2013-05-26 03:40:00,
2013-05-25 23:42:00,57.0,39.6,30.26,North,355,0.0,0.0,52,0.00,,,0.00,0.00,VWS V14.01,2013-05-26 03:42:00,
2013-05-25 23:44:00,57.0,40.1,30.26,North,355,1.0,1.0,53,0.00,,,0.00,0.00,VWS V14.01,2013-05-26 03:44:00,
2013-05-25 23:45:00,56.9,39.5,30.26,North,355,0.0,1.0,52,0.00,,,0.00,0.00,VWS V14.01,2013-05-26 03:45:00,
2013-05-25 23:47:00,56.9,40.0,30.26,North,355,0.0,1.0,53,0.00,,,0.00,0.00,VWS V14.01,2013-05-26 03:47:00,
2013-05-25 23:49:00,56.9,40.0,30.26,North,355,0.0,3.0,53,0.00,,,0.00,0.00,VWS V14.01,2013-05-26 03:49:00,
2013-05-25 23:50:00,56.9,40.0,30.26,North,355,0.0,3.0,53,0.00,,,0.00,0.00,VWS V14.01,2013-05-26 03:50:00,
2013-05-25 23:52:00,56.8,39.9,30.26,North,355,0.0,1.0,53,0.00,,,0.00,0.00,VWS V14.01,2013-05-26 03:52:00,
2013-05-25 23:54:00,56.8,40.3,30.26,North,355,0.0,2.0,54,0.00,,,0.00,0.00,VWS V14.01,2013-05-26 03:54:00,
2013-05-25 23:55:00,56.7,39.8,30.26,North,355,0.0,0.0,53,0.00,,,0.00,0.00,VWS V14.01,2013-05-26 03:55:00,
2013-05-25 23:57:00,56.7,40.3,30.26,North,355,3.0,3.0,54,0.00,,,0.00,0.00,VWS V14.01,2013-05-26 03:57:00,
2013-05-25 23:59:00,56.6,39.7,30.26,North,355,1.0,1.0,53,0.00,,,0.00,0.00,VWS V14.01,2013-05-26 03:59:00,